ECMWFFLT1_925_spd_000.txt.gz
Wind_Speed
13 10 9 7 6 5 3 3 1 4 5 4 5 6 7 6 6 6 6 7 8 9 8 9 10 10 10 10 9 8 9 9 9 8 8 8 8 7 5 4 3 3 1 6 8 6 4 3 7 12 11 11 11 10 10 10 10 11 12 13 16 18 20
14 11 10 8 7 6 5 4 3 3 4 4 4 4 5 6 7 7 7 8 11 12 11 12 11 11 11 10 10 10 9 10 11 9 9 9 9 8 7 6 6 4 1 3 6 6 5 4 4 4 9 14 13 11 11 11 11 11 13 14 15 16 16
18 15 13 11 9 8 7 6 6 5 4 4 3 3 5 6 8 9 9 10 11 12 12 13 13 13 13 13 12 11 10 10 10 10 10 10 9 8 8 7 7 6 4 2 3 5 4 5 4 3 7 9 9 12 15 15 16 17 16 17 17 18 18
21 18 16 14 12 11 10 9 8 7 5 4 3 3 4 5 7 8 9 9 10 11 13 14 14 14 15 15 14 13 12 11 11 9 9 9 8 8 8 9 9 8 6 4 4 5 4 4 5 4 6 8 9 13 16 16 18 19 18 18 17 18 18
23 21 20 18 15 14 12 11 10 10 8 6 4 3 3 3 4 5 6 7 9 10 13 14 14 14 15 15 16 16 14 14 12 11 10 10 9 9 9 9 8 8 7 6 6 5 5 5 6 5 6 9 8 11 15 17 16 16 17 18 17 17 16
25 23 22 20 18 15 14 13 13 12 10 8 7 5 4 3 3 2 4 5 7 9 11 13 13 13 14 16 16 16 15 15 14 13 12 11 10 10 9 9 8 8 7 7 7 7 6 7 7 6 7 8 8 11 14 15 15 16 16 16 17 16 15
27 25 23 21 19 17 15 15 14 13 11 9 8 7 6 5 4 2 1 3 5 7 9 11 12 12 14 15 16 16 15 15 14 13 13 12 11 11 10 10 10 9 8 9 9 8 8 8 8 7 8 8 9 11 10 10 12 14 14 15 15 16 17
29 27 25 23 20 18 17 16 15 14 11 9 8 8 7 6 5 3 2 2 4 5 8 10 10 11 12 14 15 15 15 15 14 14 14 13 13 13 13 12 12 12 11 10 10 10 9 8 8 8 8 6 6 7 7 8 11 12 15 16 16 16 16
30 29 27 25 23 20 19 18 16 14 12 10 10 10 8 7 6 5 4 3 3 4 6 8 10 11 11 13 14 14 13 13 13 13 13 13 14 14 14 14 14 14 13 12 11 11 10 9 9 8 7 6 5 5 4 6 7 10 14 16 15 16 15
32 31 29 27 25 23 21 20 17 15 14 12 11 11 10 8 7 6 6 5 3 3 5 7 8 10 10 12 13 13 12 12 13 12 12 13 14 15 15 15 15 14 14 14 13 12 11 10 9 8 7 6 6 5 4 5 5 7 11 14 15 16 15
34 32 30 28 26 24 23 23 20 18 16 14 12 12 11 10 9 9 8 7 4 2 4 5 6 8 9 10 12 11 11 11 12 12 12 13 14 16 16 16 16 15 15 14 14 13 11 10 9 9 8 7 7 7 6 6 6 9 12 13 15 15 14
36 34 31 30 28 26 25 25 23 20 18 15 14 13 12 11 11 10 10 7 4 1 2 4 5 6 8 9 10 10 10 10 11 12 13 14 15 16 16 17 16 16 15 14 14 13 11 10 10 10 10 9 7 8 9 8 6 9 12 12 14 15 15
37 35 33 32 30 28 27 26 24 22 20 18 15 14 13 12 12 11 10 6 3 1 2 3 4 6 7 8 9 9 9 11 12 13 14 15 16 16 17 17 17 17 15 14 14 13 12 11 10 10 10 10 9 8 10 10 7 11 17 15 15 18 16
38 36 35 34 32 30 28 28 26 24 22 20 17 15 14 13 12 11 9 6 3 1 1 2 4 6 7 7 8 9 10 11 12 13 13 14 15 15 16 17 17 17 16 15 14 13 13 12 11 11 10 10 10 9 9 10 8 11 19 18 15 17 18
39 37 36 35 33 31 30 29 27 26 24 22 20 18 16 15 13 11 8 5 3 2 2 2 4 6 7 7 9 10 11 12 13 13 14 14 15 15 15 15 16 16 15 15 15 14 13 13 12 12 11 10 11 10 10 11 11 11 16 20 17 17 17
37 38 37 36 35 33 31 30 29 27 26 24 22 20 18 17 15 12 8 6 4 4 3 3 5 6 6 8 9 10 11 12 13 14 14 15 15 16 15 15 15 14 14 15 15 15 14 14 14 14 14 13 12 13 11 11 12 12 14 19 19 17 15
33 36 37 37 37 34 32 32 30 28 26 25 23 21 20 18 16 13 10 8 6 5 4 4 5 6 7 8 9 9 10 12 13 14 14 15 15 16 16 15 15 14 13 14 15 15 15 15 15 15 15 15 14 15 14 12 12 12 14 18 20 19 17
33 35 37 37 37 36 34 33 30 28 27 25 24 23 21 19 16 14 12 10 8 6 5 5 5 6 6 7 8 9 10 11 12 13 14 14 15 15 15 16 15 14 14 14 15 15 16 16 16 15 14 15 14 14 14 13 12 13 13 16 20 22 20
37 38 38 36 35 35 35 32 30 28 27 25 25 24 21 19 16 14 12 10 9 7 6 5 4 5 5 6 7 9 9 11 12 13 13 14 15 15 16 16 16 15 15 16 16 17 17 17 16 16 15 15 15 15 15 14 13 13 15 16 20 21 20
38 39 39 38 36 35 34 32 30 28 26 26 26 24 21 18 15 13 12 11 9 7 6 4 3 3 4 6 7 9 10 12 13 13 14 14 15 15 16 17 18 18 17 18 18 19 18 18 18 18 18 18 18 17 17 18 17 17 17 18 19 20 19
37 38 39 39 36 35 35 32 30 28 26 26 26 23 20 17 15 13 11 10 9 7 5 4 4 3 5 7 9 11 12 13 14 15 15 16 16 16 17 18 19 19 20 20 20 20 20 20 20 21 21 21 20 20 20 19 19 19 18 18 18 19 19
33 34 36 37 37 37 36 33 31 29 28 27 25 22 20 17 15 14 13 10 8 7 6 5 4 4 6 8 10 11 12 12 13 14 15 16 17 17 18 19 20 21 21 21 22 22 22 21 22 23 23 23 23 22 21 19 18 18 18 17 17 18 18
31 34 36 37 38 37 36 33 31 30 29 27 24 22 20 18 17 16 14 12 9 8 7 6 4 5 6 8 9 9 10 10 11 12 14 15 17 18 18 20 21 22 22 23 23 24 24 24 24 24 25 25 24 25 24 22 19 18 18 19 18 17 17
32 35 37 39 39 39 38 35 33 31 30 27 24 22 20 18 17 16 14 12 10 9 7 5 4 5 6 7 8 9 9 10 10 11 13 15 17 19 20 21 22 22 23 23 24 25 25 25 25 25 26 26 26 26 26 25 22 20 19 19 19 18 17
32 35 38 40 38 35 36 36 34 32 30 27 24 22 21 20 18 16 14 12 10 9 7 6 5 5 6 7 8 9 9 10 11 12 14 16 19 20 22 23 23 23 23 24 24 25 26 26 27 27 27 27 27 27 27 27 26 23 21 20 21 21 21
32 34 35 34 28 25 28 30 30 28 26 24 23 21 20 19 18 16 13 12 11 9 8 7 6 5 7 8 8 8 9 10 11 13 16 18 20 22 23 24 24 25 25 25 25 25 26 27 28 28 28 28 29 29 28 28 28 27 26 25 24 24 24
30 30 29 26 23 24 28 29 28 26 24 23 22 21 20 19 16 14 13 11 11 10 9 8 7 7 8 9 9 9 10 11 13 15 17 20 22 23 24 25 26 26 27 27 27 27 28 28 29 29 29 29 29 29 29 28 28 28 29 29 29 28 27
26 26 26 24 23 27 31 30 29 27 25 23 22 21 20 17 14 13 12 12 11 10 9 8 8 9 10 10 11 11 12 14 15 17 19 21 23 23 24 25 26 27 28 28 28 28 28 29 30 30 30 29 29 29 29 28 28 28 29 29 31 31 29
26 25 26 27 28 32 33 30 28 28 28 25 22 20 18 15 13 13 13 12 12 11 10 10 10 11 12 12 13 13 14 16 17 18 21 22 23 24 24 25 27 27 28 29 28 28 28 28 30 30 31 31 30 30 30 30 29 30 31 31 32 32 31
26 26 27 28 30 34 35 32 31 31 29 25 22 20 18 15 13 14 14 14 13 12 11 12 12 12 14 15 15 15 16 17 18 20 22 23 23 24 24 25 27 28 28 28 28 28 28 28 29 30 30 30 30 30 29 28 28 30 30 32 33 33 33
26 28 29 30 31 33 34 34 33 30 27 25 23 20 16 15 14 15 15 14 13 13 13 13 14 15 16 17 16 16 17 18 20 22 24 24 24 24 24 26 27 28 29 29 29 29 28 28 30 31 30 29 29 30 28 27 28 29 29 30 31 31 33
27 29 30 33 35 35 35 35 32 27 25 24 21 18 17 16 15 15 15 14 14 14 15 15 15 17 18 18 18 17 17 19 21 23 25 25 25 24 25 27 28 28 29 30 30 29 28 27 29 31 30 29 31 31 29 27 29 29 29 30 30 31 32
29 30 33 37 39 38 36 34 29 25 24 22 20 19 17 15 13 13 14 14 15 16 16 17 17 19 20 20 19 18 18 20 23 25 25 25 25 25 26 28 29 29 29 30 29 29 29 28 29 32 31 29 30 30 28 28 28 28 29 30 30 30 31
30 32 36 39 39 35 31 28 25 24 23 21 19 17 15 13 12 12 13 14 16 17 18 18 19 20 21 21 21 19 19 21 23 25 25 25 25 26 27 28 29 29 29 30 30 30 30 30 30 32 32 31 32 32 31 32 31 29 30 30 30 30 31
30 33 36 37 35 31 27 25 23 23 22 20 17 16 14 12 11 11 12 15 17 18 18 20 21 21 22 22 21 20 21 23 24 25 26 26 27 28 28 29 30 29 29 30 31 32 33 33 33 34 34 35 37 37 36 37 34 32 31 31 30 31 30
25 29 33 33 30 28 27 26 24 22 22 21 18 14 12 9 9 11 12 14 16 17 18 19 21 21 21 21 20 20 22 24 25 27 28 29 29 29 30 29 29 29 30 31 33 35 36 36 37 37 38 39 40 40 40 40 36 33 33 31 30 31 30
25 26 28 29 28 27 27 28 25 23 21 19 15 12 10 9 9 10 11 12 13 14 16 18 18 19 20 20 20 22 23 26 29 31 31 31 31 30 30 30 30 31 33 34 36 37 38 38 39 38 39 39 40 40 41 40 37 34 33 31 30 31 30

ECMWFFLT1_925_spd_003.txt.gz
Wind_Speed
11 8 8 8 7 7 7 7 9 10 10 10 10 9 9 9 10 11 12 12 13 12 12 11 11 10 10 9 9 9 9 8 7 6 7 6 4 5 4 2 2 2 1 0 1 2 3 2 3 6 6 6 8 6 3 3 3 3 4 4 5 7 8
11 9 8 9 9 8 8 7 8 10 9 9 9 9 10 11 12 14 14 15 14 14 13 13 12 11 10 10 10 10 10 11 10 9 9 8 6 6 5 4 5 5 4 3 4 4 3 3 3 3 5 8 8 5 4 6 7 7 7 8 8 8 9
14 12 10 11 11 10 9 8 8 9 9 8 8 10 12 14 14 15 15 16 16 15 15 15 14 14 13 12 11 11 11 12 12 12 12 11 9 8 7 6 5 6 5 4 5 7 5 3 4 4 6 7 7 7 8 9 8 8 8 9 10 9 9
17 15 13 12 13 12 11 10 9 9 9 9 9 10 12 13 14 14 15 16 16 16 16 16 16 16 15 14 13 12 12 12 12 12 12 12 11 10 9 8 6 6 5 4 5 7 6 5 5 6 7 8 9 10 9 8 10 10 9 9 8 8 8
19 18 16 15 14 13 13 12 11 10 10 10 10 10 10 11 12 12 13 14 15 15 15 15 16 16 16 15 15 14 13 13 12 11 12 12 12 11 11 9 7 6 6 5 6 6 6 6 7 7 8 9 10 11 10 10 12 11 10 9 8 7 7
20 20 19 18 16 14 13 14 14 13 13 12 12 11 10 10 10 10 11 12 14 14 14 14 14 14 15 16 16 15 15 14 13 12 13 12 12 11 10 9 8 7 6 6 6 6 6 6 6 7 9 10 9 11 13 13 13 12 11 10 8 7 7
21 22 21 20 18 17 15 14 14 14 14 14 13 12 11 10 9 8 9 10 11 12 12 13 13 13 14 15 15 15 15 13 13 13 12 11 11 10 9 8 8 7 6 6 6 6 7 7 6 7 9 10 11 12 13 13 13 12 11 10 9 9 9
22 22 23 23 21 19 17 16 15 14 13 13 13 13 12 11 9 8 7 8 9 10 10 10 11 12 12 13 13 14 13 12 11 11 10 10 9 9 9 8 7 6 6 6 5 5 5 6 6 7 8 8 9 10 10 12 13 12 12 12 11 11 10
23 24 25 25 24 22 19 17 16 14 12 12 13 13 12 11 10 9 8 7 7 8 8 9 10 10 11 12 12 11 11 10 9 9 8 8 8 7 7 7 5 5 5 4 4 4 4 4 4 5 6 7 7 7 7 9 10 9 10 10 10 9 8
25 25 26 26 26 24 22 20 17 15 14 13 13 13 13 12 11 10 9 8 7 7 7 7 8 8 9 10 10 10 9 8 8 8 7 6 6 5 5 5 4 4 4 4 4 3 3 3 3 3 4 6 7 7 7 7 8 8 9 9 10 9 8
27 26 26 27 27 25 23 22 19 17 15 13 13 14 13 13 12 11 10 9 7 6 6 6 6 6 7 8 9 9 8 7 7 6 6 5 5 5 4 5 4 3 4 4 4 4 4 4 4 4 4 5 7 8 8 8 9 11 11 11 10 9 9
29 28 27 27 28 27 25 23 22 20 17 15 14 15 14 14 13 12 12 10 9 7 5 5 4 4 5 7 8 7 6 6 6 5 5 5 4 4 4 4 3 3 3 3 3 4 4 4 4 5 5 6 8 9 10 10 10 11 12 13 13 11 11
30 29 29 29 29 29 27 25 24 22 20 17 16 16 16 15 14 14 13 12 11 9 7 6 4 3 4 6 6 6 5 5 5 5 5 4 4 4 3 3 3 2 2 2 2 3 3 4 4 5 6 7 8 8 10 12 12 13 14 15 16 16 15
30 30 31 31 32 31 29 27 26 24 22 20 18 18 17 17 16 16 16 14 12 10 9 7 6 5 5 5 5 5 5 5 5 5 5 5 5 5 4 4 4 3 2 2 2 2 3 3 4 5 5 7 8 8 9 12 14 16 15 13 15 17 15
30 30 32 33 34 34 32 30 28 26 24 22 21 19 19 18 18 17 17 16 13 11 10 8 7 7 6 5 5 5 4 4 4 4 4 5 5 6 6 6 6 5 4 3 3 3 3 3 4 4 5 6 8 9 9 12 14 17 17 14 14 16 15
33 31 32 34 35 36 35 33 30 28 26 24 23 21 20 19 19 19 18 16 14 12 10 9 8 7 6 6 6 5 4 3 3 3 3 4 4 5 6 6 7 6 6 6 5 5 5 5 5 5 6 7 8 9 10 11 14 17 19 18 15 15 15
37 34 33 34 35 36 36 34 32 30 28 26 24 23 22 20 20 20 19 17 14 13 11 10 8 7 6 6 5 4 3 2 2 2 3 4 5 5 5 6 6 7 7 7 7 7 6 6 7 7 7 7 8 9 10 11 13 15 18 20 18 16 16
37 36 35 36 36 36 36 35 34 33 30 28 26 25 24 22 22 21 20 17 14 13 11 9 8 6 4 3 2 1 1 1 2 3 4 5 6 6 6 7 7 7 7 8 8 8 8 8 9 9 9 9 9 9 10 11 13 15 17 20 21 18 17
36 37 37 37 36 36 35 35 34 34 32 30 28 27 26 25 24 23 20 17 15 13 11 9 7 5 3 1 1 2 3 4 5 6 7 7 7 7 7 8 8 8 8 9 9 10 10 10 11 10 11 11 11 11 11 12 13 15 17 19 20 19 17
34 36 36 35 34 35 35 34 34 34 33 32 30 29 28 28 26 24 20 17 15 12 10 8 6 4 3 3 3 4 5 7 8 9 9 8 7 7 8 8 9 9 9 10 11 11 12 12 12 12 12 12 12 12 13 13 14 15 16 17 19 18 17
30 33 34 34 33 33 35 35 35 35 35 33 32 31 31 30 27 24 20 17 15 13 11 9 7 6 5 4 4 5 7 7 8 7 7 6 6 6 7 7 8 9 9 11 12 13 14 14 14 14 14 14 14 15 15 15 14 15 16 16 17 17 17
26 30 31 32 32 32 34 35 36 37 38 35 33 32 33 32 28 24 20 18 16 14 12 10 8 7 6 5 5 6 7 6 6 4 4 4 5 6 7 7 8 9 11 12 13 14 15 16 17 18 17 16 15 16 17 16 16 16 16 16 16 16 16
22 25 27 29 30 31 32 33 34 34 33 32 33 32 30 28 27 25 21 19 17 15 12 10 8 7 6 5 5 5 5 4 3 3 3 4 5 6 8 8 10 13 15 15 14 15 16 17 18 20 20 20 18 17 17 17 17 17 17 17 17 16 16
16 19 23 25 26 27 27 28 29 26 23 26 30 29 27 26 26 24 22 21 18 15 13 10 9 7 6 5 5 5 4 4 3 3 3 5 6 7 9 9 11 14 16 15 15 16 17 18 19 20 21 22 22 22 21 20 19 18 18 19 18 17 17
14 16 17 18 21 23 23 25 25 24 24 27 29 28 28 28 26 23 22 20 17 15 13 11 10 8 6 5 5 5 5 5 5 4 5 6 7 8 10 11 12 14 16 18 19 17 17 17 18 20 21 22 24 25 26 26 24 22 20 20 20 20 19
14 13 13 15 18 20 22 24 26 27 31 34 32 29 30 29 26 24 22 20 17 15 14 12 9 7 6 5 5 5 6 7 7 7 7 8 9 10 11 12 13 14 16 19 19 17 17 18 18 19 20 21 22 23 25 27 28 27 26 24 24 24 22
14 12 11 15 18 18 20 24 28 32 35 36 33 32 32 29 27 25 23 19 17 15 14 12 9 8 6 5 5 7 8 9 10 10 10 11 12 12 13 14 15 15 17 18 18 19 20 19 19 19 19 18 19 20 21 23 25 27 28 28 28 28 26
14 12 11 15 17 18 21 25 30 34 36 36 35 35 33 30 28 25 21 18 17 16 14 11 9 7 6 5 7 8 10 12 12 12 13 14 15 15 15 16 16 17 18 18 19 22 24 22 21 21 20 20 20 21 21 22 23 24 25 26 27 28 27
12 11 12 15 18 21 24 28 32 35 35 36 35 33 31 30 27 23 20 19 18 16 13 10 8 7 6 7 9 10 12 14 14 14 15 17 17 16 15 16 16 17 18 19 21 24 26 25 23 22 22 23 23 22 22 22 22 24 24 26 28 28 28
11 11 12 16 20 23 26 30 33 35 36 35 34 33 33 30 26 23 22 21 18 13 10 8 7 7 8 10 11 13 14 15 15 16 18 19 18 17 16 18 19 19 19 20 22 24 26 25 24 24 25 26 25 25 24 22 22 23 23 25 27 29 30
12 12 14 18 22 26 29 32 35 37 38 36 34 33 31 27 24 23 21 18 13 9 7 7 7 9 10 11 13 15 16 14 14 16 18 19 18 17 18 21 23 22 22 22 24 26 26 25 24 25 26 26 26 26 24 22 22 22 22 23 25 26 28
12 13 15 18 23 28 30 32 35 36 36 35 32 29 25 23 23 22 17 12 9 7 6 7 8 10 11 13 15 17 16 14 14 16 17 17 17 17 18 20 23 25 25 26 26 27 25 24 24 25 26 26 27 27 25 23 23 23 22 23 23 24 25
13 14 15 18 23 29 31 33 33 33 33 32 28 26 25 23 21 18 14 10 9 8 7 8 9 11 12 14 16 17 17 15 15 17 17 17 18 19 19 19 21 23 25 26 25 25 25 24 24 26 26 27 28 27 25 24 24 24 25 25 25 25 25
14 14 16 20 24 27 31 34 35 33 32 30 28 26 25 22 17 13 12 11 9 9 9 9 10 12 14 16 18 20 19 18 18 18 18 18 19 20 20 20 21 23 24 25 25 25 25 25 27 28 28 29 30 29 28 27 27 27 27 28 27 26 25
13 14 17 22 25 27 31 33 35 34 32 30 28 26 22 18 15 13 12 11 9 8 8 10 12 14 16 17 18 18 18 17 17 18 18 18 19 20 21 24 26 26 25 25 26 27 29 31 31 31 30 31 32 32 32 31 29 27 27 27 26 25 25
12 14 18 23 26 28 29 30 32 32 30 28 26 22 19 17 16 13 10 8 6 6 8 10 12 12 13 13 12 12 13 14 15 16 17 18 20 22 25 27 27 26 26 27 29 31 32 33 32 31 31 32 33 33 33 31 29 28 26 25 26 26 26
14 17 18 21 23 23 24 28 29 28 26 26 23 20 18 17 15 10 6 4 3 4 5 7 8 9 9 10 11 13 15 16 18 19 20 21 22 25 27 27 27 28 29 31 32 32 32 32 31 30 30 31 31 31 29 27 26 26 25 24 25 26 27

ECMWFFLT1_925_spd_006.txt.gz
Wind_Speed
9 9 9 8 8 7 7 7 7 8 8 8 8 9 9 9 9 8 8 7 7 6 6 6 6 5 5 6 6 6 6 6 6 4 4 3 3 2 1 2 2 1 0 1 1 2 2 2 2 1 1 3 6 7 7 7 7 6 6 7 8 9 9
9 10 10 9 9 8 8 7 7 7 8 8 8 9 10 10 10 9 9 8 8 7 7 7 7 7 7 7 7 8 7 7 6 5 4 4 4 5 5 3 2 2 1 1 3 3 2 2 2 1 1 3 6 7 6 7 9 9 9 9 10 10 10
11 10 10 10 9 9 8 8 7 7 7 8 9 10 11 11 11 10 10 10 9 8 8 8 8 8 8 8 8 8 8 8 7 7 5 4 4 4 5 5 5 5 3 1 3 5 4 3 4 4 4 4 5 5 7 9 12 12 12 12 12 12 12
13 11 11 11 10 10 9 9 8 7 8 8 9 10 10 10 10 10 10 10 10 9 9 8 8 8 8 8 8 8 8 8 8 7 7 5 4 4 4 4 4 4 4 3 3 5 4 4 4 5 6 7 8 8 8 9 10 12 14 14 14 13 12
14 13 12 11 12 11 10 9 8 8 8 9 9 9 9 9 10 10 10 10 10 9 9 8 8 8 8 7 7 7 7 7 7 6 6 6 5 4 4 3 3 3 3 3 3 3 4 4 5 5 7 8 9 10 11 10 11 13 15 15 14 13 12
15 14 12 11 11 11 10 10 9 9 9 9 9 9 9 9 8 9 9 9 9 9 9 8 8 8 8 8 8 8 8 8 7 7 7 6 5 4 3 3 3 3 3 3 3 3 3 4 5 6 7 8 8 10 12 13 12 13 12 12 12 12 11
15 15 13 12 12 11 10 11 10 9 9 10 9 10 10 9 8 8 8 9 9 9 9 8 8 8 7 8 8 8 8 8 7 7 7 6 5 4 3 3 3 3 3 3 3 4 4 5 5 6 7 7 8 10 12 12 12 11 9 9 9 9 10
14 15 14 12 12 12 11 11 11 9 9 10 10 11 11 10 9 9 8 9 9 9 8 8 8 7 7 7 7 7 7 7 6 6 6 6 5 4 4 3 2 3 3 4 4 5 5 5 6 6 7 7 7 7 8 9 11 10 9 8 8 8 8
13 14 14 14 13 13 13 13 12 11 10 10 11 12 13 11 11 10 9 9 9 8 8 7 7 7 6 6 6 6 6 6 5 5 5 4 4 4 3 3 3 3 3 4 5 5 5 6 6 7 7 7 7 6 5 6 7 8 8 8 7 6 6
16 15 14 15 16 15 14 14 14 13 13 13 13 14 14 13 12 11 10 10 9 9 8 8 7 7 7 7 6 6 6 5 5 5 4 4 3 3 3 3 3 3 3 4 5 5 6 6 6 6 7 7 7 6 6 5 5 6 8 9 8 7 7
21 18 15 15 17 17 16 15 15 15 15 15 16 16 16 15 14 13 12 11 10 9 9 8 8 8 7 7 7 7 6 5 4 4 4 3 3 3 3 3 3 3 3 4 4 4 5 6 6 7 7 7 8 8 7 7 6 6 8 8 9 9 8
21 19 16 14 16 18 19 18 16 16 17 17 17 17 17 16 16 15 13 12 12 10 10 9 8 8 7 7 7 7 6 5 4 4 3 3 2 2 2 3 3 3 4 4 4 4 5 5 6 7 7 8 8 9 10 9 7 7 7 8 9 10 11
19 18 16 15 15 16 18 19 19 18 18 18 19 19 19 18 17 16 15 14 13 12 11 9 8 8 7 7 7 7 6 6 5 4 3 2 2 1 2 2 3 3 4 5 5 5 5 6 6 7 7 8 8 9 10 11 9 9 10 11 11 12 12
18 18 17 18 18 17 16 18 19 19 19 19 20 20 20 19 19 18 17 16 15 14 12 11 9 8 8 7 7 7 7 6 5 5 4 3 2 1 1 2 2 3 4 5 6 6 6 6 7 8 7 8 9 9 9 11 11 11 12 11 11 12 12
19 18 19 19 19 18 16 16 18 19 19 20 21 21 21 20 20 19 18 17 16 15 14 13 11 10 9 9 8 7 7 6 5 5 4 3 2 1 0 1 2 2 3 4 6 7 7 7 8 8 8 8 9 9 9 11 12 12 13 12 12 13 13
18 19 20 20 20 20 18 17 18 19 20 20 21 22 21 22 21 20 19 18 17 16 15 14 12 11 11 10 9 8 7 6 5 5 4 3 1 1 1 2 2 2 3 4 5 7 7 7 8 8 9 9 10 11 11 12 13 13 14 14 13 13 12
16 17 18 19 20 19 18 17 18 19 19 19 21 22 22 23 23 22 21 19 19 18 17 15 14 13 12 11 10 10 8 7 6 5 4 3 2 2 2 3 3 3 3 5 6 6 7 7 8 9 10 10 11 12 12 12 13 14 15 15 15 14 14
13 15 15 15 16 16 17 17 18 19 19 20 21 22 23 23 23 23 22 21 20 19 18 17 16 15 14 12 11 10 9 8 7 5 4 3 3 3 3 3 3 3 4 5 6 6 7 8 9 10 11 11 12 12 12 13 14 15 16 17 16 16 15
11 13 13 13 15 17 18 18 18 19 20 20 21 22 24 24 24 24 22 21 21 20 19 18 17 16 15 13 12 10 9 8 7 6 4 3 3 3 3 3 3 3 4 5 6 7 8 9 10 11 11 12 13 13 14 15 15 16 17 18 18 17 16
10 11 12 13 15 16 16 18 18 18 18 19 20 21 23 23 23 23 23 22 21 20 20 19 17 17 15 14 12 11 9 8 6 6 4 4 4 4 4 3 3 4 4 5 6 7 8 10 10 11 12 12 12 13 14 15 16 17 18 18 18 17 16
8 10 11 12 14 15 16 17 18 17 16 17 18 19 19 19 19 20 22 23 22 21 20 19 18 17 15 14 12 11 9 7 6 5 4 4 4 4 4 4 3 3 3 4 6 7 8 10 11 12 12 13 13 14 15 16 16 17 18 19 18 17 17
7 7 9 10 12 14 15 17 17 17 16 17 17 18 20 22 22 21 22 22 21 21 20 19 18 18 16 14 12 10 8 7 6 5 4 4 4 4 4 4 4 5 4 6 7 7 8 9 11 12 13 13 14 15 16 16 17 17 17 18 18 18 17
7 7 8 9 9 11 13 15 16 16 17 17 17 17 20 23 23 23 23 23 22 21 18 17 18 19 17 14 11 9 8 6 5 5 4 5 4 4 5 5 6 8 9 9 7 8 10 10 10 11 13 14 15 16 16 17 17 18 18 18 18 18 17
9 8 8 8 8 9 10 12 14 14 15 15 16 18 21 24 26 25 23 23 24 22 19 19 21 20 17 14 11 9 7 6 6 5 5 5 5 5 6 6 6 8 9 8 7 10 13 13 11 12 14 15 16 17 18 19 19 18 19 19 19 19 18
10 9 9 9 8 8 9 10 12 12 13 15 18 20 23 26 28 27 24 22 21 19 18 20 20 17 14 12 9 8 7 6 6 6 6 6 6 6 7 7 8 8 9 9 10 11 12 12 12 14 16 17 18 19 20 21 22 21 21 21 21 21 20
10 10 9 9 8 8 8 9 11 12 14 16 17 19 22 24 25 25 23 22 21 20 19 19 18 15 12 9 7 6 6 6 6 6 7 7 7 8 8 9 9 9 9 10 11 11 11 11 13 15 17 18 19 20 19 21 22 23 24 24 24 24 22
10 10 10 9 8 8 8 9 11 12 14 16 17 18 21 23 24 23 22 22 22 21 20 19 17 14 11 8 7 6 6 6 6 6 7 8 9 10 10 10 10 10 11 11 11 11 12 13 15 16 17 17 18 18 19 20 22 23 26 27 28 27 25
10 10 11 10 10 9 9 10 11 12 14 15 16 17 19 22 23 22 21 21 19 18 19 19 16 13 10 8 7 5 5 6 6 7 8 9 10 11 11 11 12 12 12 12 12 13 14 16 17 18 18 18 19 19 19 20 21 22 24 27 28 27 26
11 11 12 11 11 11 11 11 12 12 14 15 15 17 19 21 21 20 20 19 17 16 18 19 15 12 10 9 7 5 5 7 7 8 9 10 11 12 12 12 13 13 13 13 14 16 17 18 18 19 20 19 19 19 19 19 20 22 24 27 29 29 29
12 12 12 12 13 12 12 12 13 13 15 15 15 17 18 19 19 19 18 17 15 14 16 17 13 10 10 9 7 5 6 7 8 9 10 11 12 12 13 13 14 14 15 16 16 17 18 19 19 20 20 20 21 21 21 20 21 23 25 27 29 31 33
14 14 14 14 14 13 13 13 13 14 15 16 17 17 17 17 17 17 17 16 14 13 14 13 10 8 9 8 6 5 7 8 9 10 11 12 12 13 14 15 16 17 18 18 18 19 20 19 19 19 21 22 23 24 23 22 23 24 24 25 26 27 30
15 15 15 15 15 14 14 13 14 14 16 17 17 17 17 17 17 19 19 16 13 12 11 10 8 7 8 7 6 6 8 10 10 11 12 13 13 14 14 15 17 18 19 19 18 18 18 17 17 20 22 24 25 25 24 23 24 24 24 25 25 25 26
15 16 17 17 16 15 14 13 14 15 16 17 17 17 17 17 18 19 17 15 13 11 10 9 7 6 6 7 8 9 10 11 12 13 13 14 15 15 15 16 17 17 18 17 16 17 17 17 18 21 24 25 26 26 24 24 24 25 25 26 26 26 26
16 17 17 17 16 15 14 14 15 16 16 15 15 15 16 18 18 16 14 14 13 11 9 8 6 5 5 7 8 9 10 10 12 13 14 15 16 16 17 17 17 17 19 19 18 19 20 21 22 25 26 28 28 28 27 27 27 27 27 27 27 27 27
16 17 17 17 17 16 15 14 15 16 15 14 15 17 20 21 19 15 13 13 12 10 8 7 5 3 4 6 8 9 9 10 11 12 14 15 16 17 18 18 18 20 21 22 22 23 25 26 28 29 29 30 30 30 31 30 29 27 27 26 26 25 25
16 16 16 17 17 16 15 13 14 14 15 17 19 22 22 20 16 14 13 12 10 9 7 5 3 2 4 6 8 9 9 10 12 12 13 15 17 18 19 19 20 23 25 27 28 29 28 28 28 28 27 28 29 30 30 29 28 27 26 26 26 25 25
17 17 18 18 17 14 12 13 13 14 17 21 23 22 19 16 14 13 12 11 10 9 7 5 2 3 5 6 8 9 10 12 14 15 15 15 16 17 18 20 23 26 29 29 29 28 27 26 25 25 25 25 25 26 27 27 26 25 25 25 25 26 25

ECMWFFLT1_925_spd_009.txt.gz
Wind_Speed
9 10 10 9 8 8 8 7 7 7 7 7 6 7 6 6 6 5 5 5 4 4 4 4 5 5 6 7 7 7 6 7 7 5 5 5 4 4 3 2 3 3 4 4 5 4 4 3 3 4 4 5 6 8 8 8 10 11 11 12 13 15 14
11 11 10 10 9 9 9 8 8 7 7 7 7 7 7 7 7 6 6 6 6 6 5 6 6 6 7 7 7 7 7 7 7 7 6 5 5 4 3 3 2 3 4 3 5 6 5 4 3 2 3 4 6 7 7 8 10 11 12 13 12 13 15
12 12 11 11 10 9 9 8 8 8 8 8 8 8 8 8 7 7 7 6 7 7 7 7 6 6 6 7 7 7 7 7 7 8 7 7 6 5 4 3 1 1 2 2 3 4 4 4 4 3 4 4 4 5 6 8 10 9 10 12 12 13 16
13 13 12 11 10 10 9 9 8 8 8 8 8 8 8 7 7 7 7 7 6 6 7 6 6 6 6 6 7 7 8 8 8 8 8 8 7 6 6 5 5 5 3 2 2 3 4 4 4 4 5 6 6 6 7 7 8 9 11 12 12 14 16
14 14 13 13 12 11 10 9 9 8 8 8 8 8 7 7 7 7 6 6 6 6 6 6 6 6 6 7 7 7 8 8 8 8 8 9 8 7 7 7 6 5 5 5 5 4 5 5 5 5 6 7 7 7 8 9 10 12 13 12 11 13 15
15 14 14 14 14 13 12 11 10 9 9 9 9 8 8 7 7 6 6 6 6 6 6 6 6 6 6 7 7 8 8 8 9 9 8 9 8 8 7 6 6 5 5 5 5 4 4 5 5 5 6 7 7 8 9 9 10 11 12 13 14 14 14
16 15 14 15 15 14 14 13 11 10 10 9 9 9 9 8 7 7 7 7 7 6 6 6 6 6 6 7 7 7 8 8 8 8 8 8 8 8 7 6 6 5 5 4 5 5 5 5 5 6 7 7 7 8 8 8 8 9 9 9 10 11 11
17 16 15 15 15 14 14 15 13 12 11 11 11 10 10 9 8 8 8 8 8 7 6 6 6 6 6 6 7 7 7 7 6 7 7 7 7 7 7 6 5 5 6 6 5 5 6 6 6 6 6 6 6 6 6 6 7 8 9 9 7 7 8
17 17 16 15 16 15 14 15 14 13 13 13 12 13 12 10 10 9 9 9 9 8 7 6 5 5 5 5 6 6 5 5 5 5 5 6 6 6 6 6 5 5 6 7 6 6 6 7 6 6 6 6 6 5 4 5 5 5 8 10 9 7 6
17 17 16 16 16 15 15 15 15 14 15 15 15 15 14 13 11 11 10 10 9 9 8 7 6 6 5 5 5 5 5 4 4 4 4 4 4 4 4 5 5 4 5 7 6 6 7 7 7 7 7 6 6 5 5 5 5 6 7 8 10 10 8
17 16 15 15 16 16 15 15 15 15 15 16 17 17 16 15 14 13 11 11 10 10 9 9 8 7 6 5 5 4 4 4 4 4 3 3 3 2 2 3 3 3 4 5 5 5 6 6 7 7 7 7 7 6 6 6 6 8 9 7 8 9 11
16 16 15 14 15 16 16 16 15 16 16 16 17 18 18 17 16 15 13 12 12 11 10 10 9 9 8 7 6 5 4 4 4 3 3 2 2 1 1 1 1 1 2 4 4 4 4 5 5 7 7 8 8 7 8 8 6 8 10 10 9 10 12
14 14 14 14 15 15 15 16 16 16 16 17 18 19 19 18 18 17 15 14 14 13 12 12 11 10 9 8 7 6 6 5 5 4 3 2 2 2 1 1 1 1 2 3 3 3 4 4 4 5 6 7 7 7 8 9 8 9 11 12 12 13 13
13 14 14 14 15 16 16 16 16 16 17 17 18 19 19 19 19 18 17 16 15 15 14 13 12 11 10 9 8 7 7 7 6 5 4 4 3 3 2 2 2 2 2 3 4 4 4 4 5 6 6 6 6 6 7 9 10 10 12 12 12 13 13
11 15 16 16 15 15 16 17 17 17 18 19 19 20 20 20 20 19 18 18 17 16 15 15 14 13 12 11 11 9 9 8 7 6 5 5 5 4 3 3 3 2 3 4 5 5 5 5 6 6 6 6 7 7 8 9 10 11 12 13 13 14 13
11 15 19 20 18 16 16 17 17 17 18 19 20 21 20 20 21 20 20 19 18 18 17 16 16 15 14 14 13 11 10 9 8 8 7 6 5 5 4 4 4 3 4 4 5 6 6 6 6 7 6 7 8 9 9 9 10 12 13 13 13 13 13
11 14 18 21 21 20 19 18 17 18 17 17 18 20 20 20 21 22 21 21 20 20 19 18 17 16 16 15 14 12 12 11 10 9 8 7 6 5 5 5 4 4 4 5 5 6 6 6 6 7 8 8 9 9 9 9 10 11 13 14 14 14 14
10 14 15 17 18 18 17 16 17 18 18 17 18 20 20 21 22 22 22 23 22 22 21 21 19 18 17 16 15 13 12 12 11 9 8 7 6 6 5 5 5 4 4 5 5 6 6 6 8 9 9 9 10 10 10 10 11 12 13 15 15 15 15
9 11 13 16 18 17 14 14 16 18 18 18 19 20 21 21 23 24 24 24 24 23 23 21 20 18 17 16 15 14 13 12 11 10 9 8 7 6 6 5 5 5 5 5 5 6 6 7 8 9 10 11 11 12 11 12 12 13 14 15 16 16 16
4 5 7 11 13 14 13 14 16 17 18 19 19 20 22 22 24 26 26 24 24 23 22 21 20 18 17 16 15 14 13 12 11 10 9 8 7 7 6 6 6 5 5 5 5 5 5 7 8 9 10 11 12 12 13 13 13 13 14 15 15 15 15
2 3 4 5 7 10 12 14 16 17 19 21 21 20 21 23 25 27 26 24 23 22 21 21 20 18 17 16 14 13 12 11 11 10 8 8 8 7 7 7 7 6 6 6 6 5 6 7 8 9 10 11 12 13 13 14 14 14 15 15 15 15 15
2 3 4 5 6 8 10 12 14 16 18 20 19 18 18 20 24 27 26 23 23 22 22 21 20 20 18 16 14 13 12 11 10 10 9 8 8 8 8 8 7 8 10 11 10 10 10 10 9 9 10 10 11 13 14 14 15 15 15 15 15 15 15
2 3 4 6 6 7 8 10 12 14 15 17 17 18 18 20 23 25 23 21 22 23 22 21 21 23 21 18 15 14 12 11 10 10 9 8 8 8 8 8 9 12 14 13 13 12 10 10 10 10 10 10 11 12 14 15 15 15 15 16 16 15 15
3 4 5 5 6 7 8 9 11 12 13 14 15 17 18 19 21 21 19 20 22 22 20 20 23 26 24 20 16 14 13 12 11 10 9 8 9 9 9 9 9 11 13 12 12 10 9 11 12 11 11 11 12 14 15 16 16 17 16 17 17 16 16
5 5 5 6 6 7 7 8 10 11 12 12 13 15 16 17 18 18 18 20 20 19 18 21 25 27 25 23 19 14 12 11 10 10 9 9 9 8 9 9 8 9 9 10 11 10 11 14 14 12 11 13 15 16 17 17 17 17 17 18 18 18 17
5 5 5 6 7 7 8 9 9 10 11 10 11 12 13 14 15 15 16 17 17 16 18 23 27 27 26 25 22 15 11 11 11 9 9 9 9 8 8 8 9 9 9 10 11 11 12 13 12 11 12 14 17 18 19 19 19 20 20 20 20 20 19
5 6 6 7 8 9 9 10 9 9 10 10 11 12 13 14 16 15 16 18 17 16 20 25 27 27 26 24 21 16 10 10 10 8 8 9 9 9 9 9 9 9 10 10 11 10 10 10 10 11 12 15 17 19 20 21 22 23 24 25 24 23 21
6 7 8 8 9 10 10 10 10 10 10 11 11 13 14 16 18 18 19 21 20 18 22 25 26 26 24 21 19 15 10 9 8 7 8 9 9 10 10 10 10 11 11 11 12 12 11 11 12 14 15 17 18 19 20 20 20 22 24 26 27 26 24
7 8 9 9 10 10 11 11 11 11 11 11 11 13 13 15 18 19 20 20 18 18 22 26 26 24 22 18 16 12 8 8 8 8 8 9 9 10 10 10 11 11 12 12 13 13 13 13 14 16 18 18 19 19 19 19 20 22 24 26 27 28 28
8 9 9 10 11 11 11 11 11 11 12 12 12 12 13 14 16 18 19 19 18 19 24 27 25 22 19 16 14 9 7 8 8 8 9 9 10 10 10 11 11 12 12 12 14 15 16 17 17 17 18 19 19 20 20 20 20 22 24 26 27 29 30
9 10 10 11 11 12 12 12 12 11 12 13 13 13 13 13 14 15 17 18 18 20 26 28 23 20 17 15 12 8 7 7 7 8 8 9 9 10 11 12 13 14 15 15 16 17 19 18 17 17 18 19 20 22 21 21 22 22 23 24 26 28 28
10 10 11 11 11 12 13 13 13 13 13 13 14 14 13 12 12 13 14 15 15 21 27 27 21 19 17 14 11 8 4 5 6 7 8 8 9 9 10 11 14 15 16 16 17 18 18 18 16 16 17 19 22 24 22 23 24 23 22 23 23 24 25
12 11 11 11 11 12 13 14 14 14 14 14 14 14 12 11 12 12 13 14 15 22 27 25 20 18 17 14 11 8 5 5 7 7 7 8 8 9 10 10 11 11 11 12 15 15 16 17 16 16 16 19 23 25 24 25 25 24 24 25 24 25 25
13 13 12 12 12 12 13 14 15 14 14 14 14 13 10 9 10 13 15 14 14 18 23 22 18 16 14 12 10 9 6 6 7 6 7 8 9 10 11 10 9 9 8 8 11 13 15 17 19 19 19 20 23 26 27 27 27 27 28 27 26 26 25
15 14 14 13 13 13 13 15 15 14 13 12 11 11 10 11 14 15 15 13 12 13 18 19 17 14 12 10 9 8 6 6 8 7 7 9 9 10 12 11 10 10 10 11 15 18 21 23 23 22 21 21 23 25 25 25 25 25 26 25 24 23 23
16 16 15 14 14 14 14 15 15 13 12 10 7 6 10 15 17 16 15 14 12 13 15 15 13 11 9 8 7 7 6 7 8 7 7 9 10 11 12 12 12 14 16 18 23 26 26 25 22 20 19 19 20 21 22 23 23 23 24 23 23 23 22
17 17 16 14 14 14 14 14 13 10 9 9 10 12 13 16 17 16 15 15 13 14 14 12 9 7 6 5 5 5 4 4 6 6 6 8 10 11 11 13 15 18 21 23 24 25 24 22 19 18 19 19 20 21 21 22 22 21 22 22 22 22 22

ECMWFFLT1_925_spd_015.txt.gz
Wind_Speed
25 24 24 23 21 21 21 20 18 17 14 13 11 11 13 13 14 15 16 17 16 16 18 18 15 14 14 13 12 12 11 10 9 10 11 8 7 6 5 5 3 1 0 0 1 2 2 1 1 1 1 3 5 5 4 3 3 4 6 8 6 5 5
24 24 24 22 21 21 22 20 18 16 14 14 12 11 12 12 13 17 17 15 13 12 12 13 13 13 13 13 13 13 13 12 11 12 13 10 8 8 6 6 4 2 2 2 1 2 2 2 1 2 2 3 5 6 4 4 3 3 5 7 6 6 6
25 24 23 22 21 22 22 20 18 17 16 15 14 14 13 12 13 15 16 15 13 12 12 13 12 12 12 12 12 12 13 14 13 13 14 13 12 11 8 7 6 5 3 2 2 1 0 1 0 2 4 7 6 5 4 3 3 4 6 6 8 7 4
27 25 25 23 22 22 21 19 18 18 17 16 15 14 14 13 13 15 16 15 14 14 14 15 14 13 13 12 11 11 12 13 14 14 14 15 15 15 13 11 10 9 7 6 7 7 6 4 2 2 6 10 8 7 7 7 6 6 9 9 10 10 8
27 27 27 25 23 22 21 20 20 19 17 16 15 14 15 15 15 15 16 15 14 14 14 13 13 13 12 12 12 11 11 11 11 11 12 13 13 15 15 13 11 10 9 9 8 9 7 5 4 3 7 9 7 9 12 9 7 7 9 10 9 11 11
27 27 27 26 24 23 22 22 20 18 18 17 15 15 16 15 14 14 15 14 14 14 13 12 12 12 12 13 14 13 13 12 10 10 11 11 12 13 13 11 10 9 9 8 6 7 6 6 7 6 6 8 5 9 12 10 10 8 9 13 13 13 10
27 25 26 26 23 23 23 21 19 17 17 16 15 15 16 15 12 11 13 14 15 15 13 11 11 12 13 13 14 14 14 13 12 12 11 11 12 11 10 9 7 7 7 6 4 4 4 5 7 6 5 6 4 7 9 10 11 9 10 14 16 17 16
26 24 24 24 23 23 22 19 18 15 14 14 13 14 14 13 11 10 11 13 14 15 14 12 10 10 10 12 13 14 14 13 12 13 12 12 13 11 9 8 7 7 6 5 4 3 3 3 5 5 5 4 3 5 6 8 10 8 9 13 12 14 17
24 23 22 23 22 22 22 19 18 15 14 14 12 13 13 11 10 9 10 11 12 13 14 13 11 8 9 11 12 12 12 10 10 12 12 12 12 11 9 7 7 7 6 5 5 5 6 5 4 5 7 7 4 3 4 5 7 5 8 14 11 11 16
23 23 22 22 20 20 20 18 18 17 15 14 12 13 13 11 8 8 9 9 10 12 13 12 10 8 8 10 11 11 10 8 8 9 10 10 10 10 9 6 5 6 6 6 7 8 9 8 6 6 7 8 6 4 2 3 4 4 8 15 12 11 17
21 22 21 20 19 19 19 17 18 18 16 15 13 13 13 11 9 8 9 9 9 11 11 9 9 8 7 8 9 9 9 8 7 7 6 6 7 8 8 7 4 4 5 6 6 6 8 8 7 5 4 5 5 5 3 2 3 4 9 16 15 15 20
19 19 20 20 18 19 18 17 18 19 17 16 14 13 13 12 10 9 9 9 9 11 11 9 9 9 8 7 8 9 8 9 8 7 6 4 5 7 8 7 4 3 4 4 3 4 4 4 5 4 3 4 3 4 4 3 1 4 10 16 17 19 22
16 16 18 20 18 18 19 17 17 18 17 16 14 12 12 12 11 11 10 10 9 10 11 10 10 10 10 9 9 9 8 8 8 6 6 5 4 5 5 4 2 2 2 3 4 5 2 2 3 5 5 3 3 3 6 5 3 6 11 14 16 20 21
3 5 11 21 21 18 18 18 17 16 16 16 15 13 13 12 11 11 11 11 10 10 11 12 11 12 11 11 11 11 9 9 9 7 5 6 5 4 3 2 1 2 1 2 2 4 1 1 2 4 4 3 3 4 5 7 6 8 12 15 16 17 17
4 4 4 14 20 17 18 18 17 16 16 16 16 15 15 14 13 12 12 12 12 11 11 12 13 13 13 12 13 12 11 12 12 10 8 8 7 5 4 4 3 3 3 3 1 2 1 2 2 4 4 3 4 5 5 7 7 8 11 14 15 15 15
12 9 5 10 15 15 17 17 15 15 16 18 18 16 15 15 14 14 13 14 14 13 12 13 13 14 14 14 14 14 13 13 14 13 12 11 9 8 7 5 4 4 5 4 2 1 2 3 2 2 3 2 3 4 5 6 8 8 10 12 13 15 17
15 11 6 6 9 11 14 15 15 14 15 17 18 17 17 17 16 16 15 15 16 15 15 15 15 16 16 16 16 16 15 15 14 14 15 13 11 11 10 7 6 6 6 5 2 1 2 3 3 3 3 4 4 5 6 7 7 8 9 12 14 15 16
19 16 11 11 12 12 14 16 17 16 15 16 16 16 17 17 17 17 18 18 18 19 19 19 19 18 18 18 19 18 18 18 16 15 15 14 12 12 12 9 8 8 7 7 5 3 4 5 5 5 5 6 6 6 8 8 8 8 9 12 15 16 16
18 19 21 22 21 18 17 16 17 18 18 18 18 17 16 16 16 17 18 19 20 19 19 19 20 21 20 21 21 21 21 21 18 17 16 15 13 12 12 11 9 9 8 7 7 6 7 7 7 7 7 7 7 8 9 9 9 10 10 12 13 15 16
14 16 19 21 21 19 18 17 17 17 19 20 20 20 18 16 15 14 15 17 18 18 17 17 20 23 24 24 24 24 24 23 20 19 18 16 14 14 13 11 9 9 9 9 8 9 9 9 8 7 8 9 10 10 10 10 10 10 11 13 14 16 17
13 14 15 16 17 18 19 18 18 18 19 20 21 21 20 19 18 17 17 18 19 21 20 19 22 25 26 27 27 27 26 24 22 21 20 17 16 15 14 12 10 10 10 11 11 10 10 9 8 7 9 11 12 11 10 9 10 10 12 14 16 17 18
11 11 12 11 12 13 15 16 16 16 17 18 19 19 19 19 18 19 19 20 21 22 22 21 22 24 25 27 28 27 26 25 23 22 20 18 16 15 14 12 12 11 11 11 11 11 11 10 9 10 12 11 10 10 9 9 9 11 12 14 15 16 18
11 10 10 9 8 8 9 11 12 14 15 15 15 15 15 16 18 19 19 20 20 21 22 23 23 23 24 26 26 26 26 26 24 23 21 19 18 16 14 14 13 12 12 12 12 12 11 12 12 13 11 10 9 8 7 7 8 10 11 12 14 15 16
11 10 10 10 9 9 9 10 11 12 13 13 12 12 13 14 15 17 19 20 21 21 23 24 25 24 24 26 26 25 26 27 25 24 23 22 20 18 16 15 14 13 12 13 13 13 13 13 14 14 11 9 8 8 7 7 8 9 10 11 13 14 15
10 9 10 10 9 8 8 10 11 12 12 12 12 12 13 13 13 14 15 16 18 20 22 23 25 25 25 26 26 25 26 27 26 24 23 23 21 19 17 15 14 13 13 13 14 14 14 14 14 13 11 9 9 9 9 9 9 10 10 12 14 16 17
8 9 8 7 5 4 4 4 4 6 7 7 7 9 10 10 10 9 10 12 14 17 21 22 23 25 25 25 25 24 24 27 27 25 23 21 20 18 16 15 14 13 13 13 14 13 13 13 13 12 11 11 11 10 10 10 10 11 12 13 16 18 20
9 10 8 5 3 2 1 1 1 2 2 2 2 3 5 7 9 9 10 12 13 16 19 20 20 22 23 23 24 24 24 25 25 23 21 19 18 16 13 13 14 13 12 11 12 11 12 12 12 11 11 12 12 11 11 12 12 12 13 14 17 20 21
8 7 5 4 3 1 1 2 2 3 3 3 4 5 5 7 10 12 13 14 14 15 16 15 16 19 20 19 22 25 25 24 22 20 16 14 15 14 12 12 11 10 9 8 8 9 10 11 12 12 12 12 12 12 13 14 14 15 16 17 18 20 21
6 4 4 2 1 1 1 2 2 3 4 4 6 7 8 9 10 13 15 16 16 15 14 13 14 14 15 16 20 24 23 21 19 17 14 13 13 13 13 12 11 10 10 10 11 12 13 14 15 14 13 12 12 13 14 15 15 16 17 17 17 18 18
4 4 3 3 2 2 2 3 4 5 6 6 7 8 9 10 11 12 14 16 17 15 14 14 13 11 13 18 21 20 19 17 15 14 13 11 9 9 9 10 9 10 12 13 13 14 14 15 15 14 13 13 13 14 14 14 14 13 13 14 16 16 17
5 5 5 4 3 3 4 5 6 7 7 8 9 10 10 10 11 12 13 14 16 17 16 15 13 13 17 20 20 17 15 14 12 11 11 8 6 6 8 9 9 11 13 13 13 13 13 13 12 11 11 12 13 14 15 16 16 17 17 19 20 21 23
4 5 4 4 5 7 7 7 8 8 8 10 11 11 12 13 14 15 14 14 15 17 17 15 15 17 20 21 20 17 14 12 11 9 7 6 5 7 7 7 8 10 11 11 11 11 10 9 9 10 11 12 15 17 18 19 20 22 23 23 24 25 25
5 6 8 9 10 10 10 10 10 10 10 11 12 13 14 14 14 14 13 12 13 15 16 16 18 20 20 19 18 17 14 12 12 10 8 7 6 3 2 2 3 5 6 7 7 6 6 8 9 12 14 15 17 18 18 19 19 20 20 21 22 22 22
8 10 11 11 11 11 12 12 12 12 12 12 13 15 14 11 10 10 9 10 11 12 15 18 20 21 20 18 17 16 15 13 12 11 9 8 7 5 4 2 1 2 2 3 4 7 9 12 14 15 16 15 16 16 16 16 17 17 19 20 21 20 19
13 13 12 12 12 13 13 13 13 14 14 14 15 15 11 9 10 9 9 9 10 13 16 19 21 21 19 17 15 15 14 12 10 9 8 5 3 3 3 2 1 2 3 5 8 11 13 14 15 14 14 14 14 14 15 16 17 19 20 21 20 19 18
15 14 13 13 13 14 14 14 15 16 16 15 15 12 9 12 12 12 12 12 13 16 19 21 22 21 18 16 14 13 12 10 8 6 5 3 2 0 1 1 2 5 7 10 13 14 13 12 12 11 12 12 13 13 15 17 18 20 20 20 19 19 20
15 15 15 15 16 16 17 18 19 18 16 15 14 11 13 16 15 15 15 15 16 18 20 21 20 19 17 15 13 11 9 8 6 5 4 3 3 3 4 5 6 9 11 12 12 10 9 9 9 9 10 11 11 12 14 17 18 19 19 19 19 20 20

ECMWFFLT1_925_spd_021.txt.gz
Wind_Speed
14 13 12 11 11 10 10 9 9 8 7 6 6 6 7 7 5 5 6 8 9 9 8 8 8 7 6 5 5 5 4 3 2 3 6 8 8 7 6 4 4 4 3 3 3 2 2 1 2 2 2 3 4 5 5 3 3 5 7 7 8 8 7
12 11 11 11 10 10 10 10 9 8 8 7 6 6 7 7 6 6 6 9 10 8 7 6 7 7 7 6 6 5 4 4 3 2 4 7 7 7 8 6 3 4 4 4 4 3 3 2 1 2 3 5 8 11 11 5 3 4 5 5 6 6 6
14 12 12 10 9 9 9 9 9 8 8 8 7 8 9 8 7 7 7 8 7 5 4 3 4 5 6 7 8 7 7 7 6 6 6 5 5 5 7 7 5 6 5 3 4 4 4 4 3 0 2 4 5 10 14 13 11 10 8 9 10 10 12
18 16 15 12 11 10 9 8 8 8 8 9 10 11 11 10 9 9 8 7 6 4 3 2 1 3 4 6 7 8 8 8 8 8 8 8 7 7 6 5 6 6 4 4 4 3 2 3 3 1 2 3 2 6 13 16 18 19 18 18 18 17 17
20 19 17 16 15 13 12 10 9 8 9 10 12 12 12 11 9 8 7 6 6 6 4 3 2 2 4 5 6 7 8 9 9 9 10 10 9 10 9 8 8 7 6 6 5 4 4 4 4 3 3 4 2 3 7 11 14 16 17 17 18 18 17
21 20 18 17 17 16 14 13 11 9 10 11 12 12 11 10 7 6 6 7 8 7 6 5 5 5 5 7 8 9 9 9 8 9 10 11 10 10 11 10 9 7 7 7 5 5 6 6 7 6 3 4 3 3 4 6 8 10 12 14 16 19 18
19 20 18 19 19 18 16 14 12 11 11 12 12 12 11 9 7 7 9 10 10 9 9 8 8 8 8 8 8 8 8 7 7 8 9 10 10 10 9 9 8 7 7 6 4 5 5 6 8 8 4 3 3 4 6 7 7 8 11 11 13 19 19
17 20 19 19 20 19 16 14 13 12 11 12 13 12 11 10 9 9 11 11 11 10 10 9 9 9 9 9 8 7 7 6 6 8 9 9 9 9 8 8 8 8 7 6 5 6 7 7 9 9 7 4 3 5 6 7 8 10 14 12 11 18 21
21 23 20 19 20 18 16 14 13 12 11 12 14 13 12 11 10 10 11 11 11 11 10 10 9 9 9 9 9 8 8 7 7 8 8 8 8 9 8 7 8 10 10 9 9 9 8 9 9 9 9 8 5 3 4 5 5 7 14 16 12 17 20
26 24 21 20 20 18 15 13 13 12 11 12 14 13 13 12 11 11 10 11 11 11 11 10 10 10 9 9 10 9 9 9 8 8 8 8 9 9 8 8 9 11 12 11 11 10 9 9 9 9 9 9 8 4 2 3 3 2 10 15 13 15 18
27 23 20 19 19 17 15 14 13 12 11 13 14 13 12 12 12 11 11 11 11 11 11 11 10 10 10 10 10 10 10 9 9 8 8 8 8 8 8 9 8 9 10 10 10 9 8 8 8 8 8 8 8 6 4 2 2 2 7 12 13 14 17
27 23 20 19 18 16 15 14 14 13 13 14 14 14 13 12 12 13 13 11 11 11 11 11 11 11 10 10 11 11 11 10 9 9 8 7 7 7 7 8 7 7 8 8 7 7 6 6 6 6 6 6 7 7 5 3 1 3 7 9 11 13 15
28 24 21 20 19 16 14 15 14 13 14 15 15 15 14 13 13 14 15 13 12 12 11 11 10 11 10 10 10 11 11 10 9 9 8 6 6 5 5 6 7 6 5 4 5 5 5 6 6 6 5 5 7 7 6 5 1 3 6 8 10 13 15
27 24 22 20 19 15 14 16 16 14 15 16 16 16 15 14 13 14 16 16 15 13 12 11 10 10 10 10 9 10 10 10 9 9 8 7 7 6 4 4 5 5 4 3 2 3 3 5 5 6 6 6 7 8 9 8 5 3 5 8 11 13 15
25 24 22 21 19 16 14 18 20 19 18 17 17 16 16 15 14 14 15 16 17 16 14 13 12 12 11 11 10 10 10 10 10 9 9 8 8 7 5 3 3 3 3 3 2 1 2 3 3 4 5 5 7 9 10 11 10 7 8 11 13 15 17
24 23 24 24 22 17 16 19 22 23 21 20 19 18 17 16 15 15 15 16 17 17 17 15 14 13 13 12 11 11 11 11 11 11 10 9 9 8 6 5 3 3 2 1 1 1 0 1 2 2 4 5 6 8 10 12 12 10 11 13 14 16 18
24 25 26 26 23 19 18 20 23 24 23 22 21 20 20 19 18 17 16 15 16 17 17 17 16 15 14 14 13 12 12 12 12 12 11 10 10 9 8 6 5 4 3 2 1 1 1 1 1 1 2 3 5 6 8 10 11 10 10 13 14 15 16
27 26 26 26 24 20 20 22 23 23 23 23 23 23 24 24 22 21 19 17 17 17 17 17 17 16 16 15 15 15 15 14 14 14 13 11 11 11 9 8 7 6 6 5 4 3 3 3 2 2 1 2 3 5 7 9 9 9 9 11 12 14 16
27 26 26 26 25 24 23 24 24 23 23 24 26 26 28 27 25 24 23 20 19 19 18 18 17 17 17 17 17 16 17 17 16 16 16 15 14 13 12 11 9 9 8 8 6 6 5 4 3 2 2 2 3 5 7 7 7 7 7 9 10 13 16
25 25 24 24 25 26 25 25 26 26 27 27 27 28 29 29 26 25 24 23 23 22 21 20 19 19 19 19 19 18 18 18 19 19 19 18 17 16 15 14 13 12 11 10 9 7 6 5 4 3 4 4 5 6 7 7 6 6 6 7 9 12 15
25 23 21 21 21 21 23 26 27 28 28 26 27 27 27 25 24 25 24 23 24 25 24 23 22 22 22 21 21 21 20 20 21 21 21 21 20 19 17 16 16 15 14 13 11 9 7 7 6 5 5 5 6 8 8 7 5 5 5 7 9 11 13
23 23 22 21 19 19 23 25 23 23 22 20 21 22 19 19 21 22 21 20 22 26 29 28 25 24 25 25 24 24 23 23 23 24 24 24 23 22 20 18 18 18 17 16 14 11 9 8 7 6 6 6 7 8 8 6 5 5 6 8 10 11 13
21 21 22 21 20 22 24 21 18 19 19 18 19 18 16 17 19 20 18 18 20 26 30 29 25 24 26 26 26 26 26 26 26 26 26 26 25 24 23 21 20 19 18 17 15 13 10 9 8 7 7 6 7 8 7 6 5 5 6 8 9 10 13
20 20 21 22 23 25 23 20 20 22 20 17 17 17 20 21 21 20 18 18 21 25 26 24 22 23 24 24 24 25 25 25 25 25 26 28 28 27 26 24 22 21 20 19 16 14 11 9 9 8 7 7 8 8 7 6 5 6 7 8 8 9 10
19 21 22 22 23 24 23 21 21 21 20 16 14 16 20 21 19 18 19 20 23 22 18 16 16 18 19 19 20 21 22 23 23 23 25 27 30 30 28 26 24 22 21 20 17 14 11 9 8 8 7 7 8 8 7 6 6 7 8 9 9 10 10
19 20 21 20 19 19 17 16 15 14 13 11 10 12 14 14 14 17 20 20 17 12 8 7 8 9 10 11 12 15 17 19 21 22 24 25 27 29 28 26 25 23 22 19 16 13 11 9 8 8 8 8 7 7 7 7 8 9 10 10 11 11 11
17 17 16 15 14 13 11 10 8 7 6 5 6 7 7 8 9 11 12 10 8 7 6 5 5 5 6 6 7 9 11 15 18 20 22 22 23 25 26 26 26 24 22 18 15 12 9 8 8 8 8 8 8 8 9 10 10 11 11 11 12 12 12
13 13 12 11 10 9 8 7 6 5 4 4 4 4 4 4 3 3 3 4 5 6 7 6 6 6 6 6 6 7 9 11 14 17 19 19 19 21 23 23 23 22 19 16 13 10 9 9 9 9 9 9 9 10 11 11 11 11 10 11 11 12 12
11 10 10 10 10 9 8 7 6 5 4 4 4 3 3 3 2 1 2 3 5 6 7 8 9 9 9 9 8 8 9 10 11 12 13 14 14 16 17 17 19 19 17 14 12 11 10 11 11 11 11 10 10 10 10 9 9 9 9 10 11 12 13
10 11 12 13 11 9 8 6 5 3 2 1 1 1 1 1 1 2 3 4 6 8 8 9 9 10 11 11 10 9 8 8 8 8 8 9 10 11 13 15 16 16 14 12 12 12 12 13 13 12 11 10 9 9 8 8 8 9 10 11 11 12 13
11 13 13 12 11 9 7 6 4 3 1 2 2 1 2 3 4 4 5 6 8 9 10 10 10 11 12 12 11 10 8 6 6 7 8 9 10 12 13 13 12 11 11 11 11 11 12 12 11 10 9 9 8 8 7 8 9 10 10 11 11 12 12
13 13 12 11 9 7 6 5 3 3 5 6 5 4 5 6 6 7 8 9 10 11 11 11 11 12 12 11 10 9 8 7 7 10 11 11 12 12 12 11 9 9 10 10 9 8 8 7 6 6 6 6 6 7 8 10 11 12 12 13 13 13 13
9 11 11 10 8 7 7 6 4 5 7 7 7 7 7 8 8 10 12 12 12 12 13 13 12 11 10 10 9 9 9 9 11 13 14 13 13 12 11 11 10 9 8 7 6 5 4 3 3 3 4 5 6 8 9 10 10 11 12 13 13 14 15
5 6 7 7 6 6 6 5 6 7 8 8 8 9 9 8 8 10 12 14 13 13 13 13 12 9 8 8 8 9 10 12 13 14 15 14 14 13 12 11 10 8 6 5 4 2 2 2 3 4 5 6 6 7 8 8 9 10 11 13 14 15 15
7 6 5 5 4 4 4 4 5 6 7 9 10 10 9 8 8 9 11 12 13 12 12 11 10 8 7 7 9 10 12 13 14 15 15 15 14 13 12 11 9 8 6 4 2 1 2 3 4 4 4 5 5 6 7 8 10 11 13 14 15 16 17
10 9 8 6 5 4 4 3 3 4 5 7 8 9 8 8 8 8 8 9 11 11 10 9 7 7 8 8 9 10 11 12 13 14 14 14 14 13 12 10 8 6 3 1 1 2 3 3 3 3 4 4 5 6 8 10 12 13 15 16 17 18 19
13 12 10 8 7 6 5 5 5 5 5 6 8 9 9 9 9 9 8 8 9 8 8 7 7 8 9 10 10 10 10 11 12 12 11 11 12 12 10 8 6 3 1 1 2 2 2 2 2 2 3 4 5 7 9 11 12 14 15 16 18 19 20

ECMWFFLT1_925_spd_024.txt.gz
Wind_Speed
9 9 9 8 7 6 5 5 4 4 4 3 3 3 3 2 1 2 3 3 3 4 4 4 4 3 3 4 5 6 5 4 4 4 5 7 6 5 6 7 7 7 6 5 4 3 3 2 4 9 13 14 12 11 9 8 7 6 6 7 7 8 8
7 7 8 7 7 7 7 7 6 5 4 2 2 2 3 3 1 1 4 5 4 5 5 7 7 6 5 4 4 4 4 4 3 3 3 6 6 5 6 5 6 7 7 6 6 6 5 3 1 2 6 12 15 18 19 18 17 16 15 15 14 14 13
9 8 8 7 8 8 7 8 7 6 5 3 2 2 3 3 1 1 4 6 6 6 7 7 7 7 6 6 5 5 5 5 6 6 6 6 6 5 6 5 5 6 5 5 6 7 7 6 4 2 4 8 11 16 22 23 22 21 19 18 17 18 18
11 10 10 9 9 8 8 7 7 6 5 4 3 4 4 4 3 3 4 5 5 6 6 6 7 7 7 7 7 8 8 8 9 10 10 10 9 8 6 6 6 6 7 7 8 8 7 6 5 3 4 8 9 12 17 20 21 21 20 19 19 19 18
12 12 12 11 10 9 8 8 7 6 5 5 5 6 6 5 5 4 4 5 5 5 4 5 6 6 7 7 8 10 11 11 11 11 12 12 11 11 10 9 9 10 11 11 10 9 9 8 8 5 4 6 7 7 9 12 16 18 20 20 19 18 17
10 9 9 9 9 9 9 8 7 6 6 7 7 7 7 6 5 4 4 5 5 5 4 5 7 8 7 8 9 11 11 12 11 11 13 13 12 13 13 12 11 11 11 11 9 10 10 9 9 7 4 5 5 6 7 8 10 13 16 18 19 18 17
6 5 4 2 5 8 8 8 7 6 6 7 8 8 7 6 3 2 3 5 5 5 5 7 9 10 9 9 9 10 10 10 10 10 11 11 11 11 11 10 10 10 10 10 8 9 9 9 10 7 5 6 7 7 7 8 11 12 11 13 17 18 18
5 5 5 3 7 10 9 8 6 5 5 7 7 7 5 4 2 1 3 5 6 6 7 8 9 10 9 9 8 8 9 9 9 9 9 9 9 9 8 8 9 9 9 9 9 10 10 10 11 9 7 5 5 6 5 6 11 14 11 9 13 18 18
9 8 9 9 10 12 10 8 5 3 5 6 7 6 5 3 2 2 3 4 5 6 7 7 8 8 7 7 7 8 9 9 8 9 9 8 9 9 9 9 11 12 12 11 11 12 12 12 12 11 9 7 5 3 3 3 5 9 11 10 11 15 17
13 14 14 13 13 14 11 8 5 3 3 5 6 6 5 4 3 2 2 2 3 4 5 5 6 6 6 5 6 7 9 9 8 9 9 9 11 11 11 12 12 14 13 12 13 12 12 12 12 11 12 10 8 4 1 1 1 3 9 11 11 14 16
18 19 16 15 15 13 10 8 6 4 4 4 6 7 7 5 4 3 2 1 2 3 3 3 4 5 5 5 6 7 8 8 8 10 9 10 11 12 12 13 13 14 13 12 12 11 10 10 9 9 10 10 11 8 5 2 1 2 6 9 11 13 15
20 20 16 16 16 13 9 8 7 6 5 5 6 7 8 7 6 5 4 3 1 1 1 2 3 3 4 4 5 6 7 6 7 9 9 9 10 11 12 12 12 12 11 10 10 8 7 7 6 7 8 8 10 10 8 5 2 2 5 7 9 12 13
22 20 18 19 17 14 11 9 7 7 6 6 6 7 8 9 8 7 6 6 4 3 2 2 2 2 3 3 4 5 5 5 5 7 8 8 9 9 10 11 10 10 9 8 8 7 7 7 7 7 8 8 9 9 9 8 5 3 3 5 8 10 12
22 20 21 21 18 15 14 12 10 8 7 7 7 7 8 9 9 8 8 8 7 6 5 4 3 3 3 3 3 4 5 5 4 5 6 7 7 6 7 8 9 8 7 6 7 7 7 8 7 7 7 7 8 8 8 8 7 5 3 3 6 10 11
19 20 23 24 20 18 18 15 12 11 9 8 8 8 9 9 9 9 8 9 9 9 8 7 6 5 5 5 4 4 5 5 5 5 5 5 6 5 4 5 6 6 6 6 6 6 6 6 6 6 6 6 8 9 9 8 6 4 3 3 6 9 10
19 21 26 26 22 19 19 17 14 14 12 10 10 10 9 10 10 10 9 9 10 10 10 9 8 8 7 7 7 6 6 6 5 5 5 5 5 6 5 4 5 5 4 4 4 4 4 4 4 4 5 6 7 8 9 10 8 6 5 4 6 10 12
21 24 27 28 24 20 20 19 17 17 15 13 13 13 12 11 11 11 12 12 11 12 12 12 11 10 10 10 9 9 8 7 7 7 6 6 6 6 6 5 5 5 4 3 3 3 3 2 2 2 4 4 5 7 8 10 10 9 7 6 7 9 12
22 25 28 29 26 23 21 20 19 19 16 14 15 14 15 14 14 14 14 14 14 14 13 13 13 12 11 12 12 13 12 11 9 9 8 8 8 8 8 7 6 6 5 4 3 3 2 1 1 0 1 2 3 5 7 8 10 9 8 8 7 8 11
21 24 27 28 27 24 23 22 21 19 17 15 15 15 16 17 17 17 17 17 17 16 15 14 13 13 13 12 13 15 17 16 14 12 11 11 10 10 10 10 9 9 8 6 5 5 4 3 2 2 1 0 1 3 5 7 8 8 7 7 7 9 11
22 23 25 27 27 25 25 25 22 20 18 16 16 17 17 18 19 19 18 18 18 18 17 16 15 14 14 13 14 15 17 19 18 16 13 13 13 13 13 13 12 12 11 10 8 7 6 5 4 3 2 1 0 2 5 7 7 7 6 6 7 9 11
23 24 26 26 26 26 26 25 23 20 18 17 18 18 17 18 19 19 18 19 21 21 19 19 18 16 15 16 16 16 17 19 21 19 16 15 16 16 16 15 15 16 15 13 11 10 8 7 5 4 4 3 1 2 4 6 6 6 5 6 7 9 10
23 23 23 23 23 24 25 24 22 20 18 17 17 16 16 16 16 17 18 21 21 18 15 16 17 18 19 19 19 19 18 19 21 20 19 18 17 18 18 18 17 17 17 15 14 12 10 9 7 5 5 4 2 2 4 5 5 5 5 7 8 9 11
20 20 19 19 19 21 22 22 21 19 17 16 15 14 15 14 13 15 16 18 17 13 13 15 14 18 23 22 21 21 20 21 21 19 19 18 18 19 20 20 19 18 18 18 17 15 13 11 9 7 6 5 4 3 4 4 4 4 5 7 8 9 11
18 19 17 16 16 17 18 18 19 18 18 17 14 13 14 15 16 17 15 15 15 14 17 19 17 19 21 19 19 19 19 20 19 17 17 17 17 19 20 21 20 19 19 19 18 17 15 12 10 8 6 5 4 4 4 3 4 4 6 7 8 8 10
19 20 19 17 17 17 17 16 16 16 17 16 11 12 16 18 21 21 18 17 18 17 17 18 17 16 14 13 14 16 16 17 17 17 17 16 16 17 18 19 19 18 19 19 19 17 16 14 11 9 7 6 6 5 5 5 5 6 7 8 9 9 10
18 19 19 18 17 18 18 17 16 16 16 13 10 14 19 20 21 22 21 19 18 16 14 13 11 9 8 8 9 10 11 12 12 13 13 14 15 15 16 17 18 18 18 18 18 18 18 16 13 10 10 9 8 6 6 7 7 8 9 9 10 11 10
14 15 16 15 15 15 15 14 12 12 13 11 11 15 18 19 19 18 16 14 12 11 10 8 7 6 5 4 4 4 5 6 7 9 10 12 14 15 15 16 16 17 17 17 18 19 18 15 13 13 12 10 8 7 7 8 9 9 9 10 10 10 10
11 12 12 12 11 11 11 10 9 9 9 9 11 13 15 15 14 11 9 8 7 6 6 5 5 5 5 4 4 3 4 5 6 8 9 11 13 14 15 15 15 15 16 17 18 19 17 15 14 13 11 9 8 8 8 8 8 8 7 7 8 8 9
11 11 10 10 10 9 8 7 8 10 10 10 10 10 10 9 7 7 6 5 4 3 3 3 4 5 5 5 5 5 5 5 6 7 8 10 11 12 12 12 13 13 14 15 18 18 16 14 13 11 10 9 8 7 6 6 6 6 6 6 7 9 10
9 10 10 10 9 9 10 12 13 14 14 14 13 12 11 10 8 6 5 4 2 1 1 2 3 4 4 5 5 6 6 6 6 7 7 7 7 7 8 8 10 11 12 15 17 17 14 12 11 10 10 8 7 5 4 5 5 6 7 8 9 10 10
7 9 10 10 11 13 15 15 14 13 13 13 13 12 11 10 8 6 4 2 1 1 2 2 3 4 5 5 5 6 6 6 5 5 5 4 4 4 4 4 5 7 11 13 14 12 11 10 9 9 8 7 5 4 4 5 6 7 8 9 9 10 10
7 8 10 11 13 14 14 13 12 11 10 9 10 11 9 9 8 6 5 5 5 5 5 5 4 5 5 5 5 5 5 6 5 4 3 3 2 3 4 5 5 7 9 10 9 8 7 7 6 6 6 5 5 4 5 6 7 8 9 10 10 11 12
8 10 12 12 12 12 11 11 10 9 7 7 9 9 8 6 5 5 6 7 9 9 8 7 6 6 5 5 5 5 6 6 6 5 5 5 5 6 8 8 8 7 8 8 7 6 6 5 4 4 4 4 4 4 5 6 7 8 9 10 12 13 14
9 11 13 13 13 11 10 10 8 7 7 8 8 8 7 5 3 3 4 6 7 8 8 7 5 4 4 3 4 5 6 7 7 7 8 9 8 9 10 10 10 9 8 7 6 5 4 3 2 2 2 2 3 3 4 6 7 8 10 11 12 13 14
12 11 11 12 12 12 10 9 7 6 7 7 7 7 5 4 3 2 2 4 5 5 6 6 5 3 2 3 4 5 6 7 8 9 10 11 11 11 12 11 11 9 7 6 5 3 2 2 1 1 2 2 3 4 5 6 8 9 11 12 14 15 16
15 13 12 11 11 10 9 9 8 7 6 6 5 5 4 3 2 0 2 3 4 4 4 5 4 3 1 3 5 6 6 8 9 10 10 11 13 13 12 11 10 8 6 5 3 3 2 1 1 0 1 2 3 4 6 7 9 10 12 13 15 16 17
17 15 12 11 10 10 9 8 8 7 5 4 4 4 3 3 3 3 3 3 4 4 3 3 3 2 1 3 5 6 7 8 9 10 10 10 12 13 12 10 9 7 6 5 4 3 3 2 1 1 1 2 4 5 7 8 10 11 13 14 16 17 19

ECMWFFLT1_925_spd_027.txt.gz
Wind_Speed
13 14 12 10 9 7 6 7 7 7 6 5 5 4 4 3 3 3 2 3 4 5 5 5 5 4 3 3 3 3 3 4 5 6 7 9 9 7 8 9 7 7 8 7 5 5 6 5 6 9 13 16 17 17 16 16 15 14 14 15 14 14 15
12 13 13 11 9 8 7 8 7 7 6 5 5 4 3 3 4 3 2 3 4 6 7 7 7 6 5 3 3 3 2 4 5 5 8 9 8 8 9 7 6 7 7 6 6 7 7 7 6 6 10 15 18 17 16 17 18 18 18 18 16 16 17
13 13 13 11 10 9 8 8 7 6 6 5 4 4 3 3 5 4 3 3 4 4 5 6 6 6 5 4 4 3 4 4 4 5 7 8 7 8 8 7 6 6 5 5 5 6 8 7 6 7 9 11 13 13 14 15 15 16 17 17 17 16 16
14 14 14 13 12 10 9 8 7 6 5 5 4 4 3 3 5 5 4 3 3 3 3 4 4 4 5 6 7 7 6 6 6 7 9 9 9 9 7 6 5 4 4 5 5 6 7 7 8 8 9 11 12 11 12 13 14 14 15 16 16 16 16
13 13 13 13 12 10 9 8 6 5 5 5 5 4 4 4 4 4 3 2 2 3 2 2 3 4 5 8 10 10 10 9 10 11 13 14 13 12 10 9 9 8 7 6 6 5 6 9 10 9 10 10 10 10 9 10 13 14 15 15 15 15 15
12 12 13 13 12 10 9 9 6 5 5 6 6 6 5 5 4 3 2 2 2 2 2 3 4 5 7 9 11 11 11 11 12 13 15 16 15 14 13 13 12 11 10 8 7 7 8 9 9 9 9 8 8 9 7 6 8 10 13 14 13 14 14
12 12 12 12 12 10 9 10 8 5 6 7 7 6 6 5 3 3 3 3 2 2 3 4 5 6 7 9 9 9 10 11 12 13 14 15 15 14 13 12 11 11 11 10 8 8 7 7 8 10 10 8 8 9 7 6 6 7 9 11 12 12 13
12 12 13 13 11 10 8 10 10 7 7 8 7 6 6 4 4 4 5 5 5 5 5 6 6 7 7 7 7 8 10 11 11 12 13 13 13 12 11 12 12 12 12 11 9 8 6 6 8 11 11 8 6 6 6 6 7 7 7 7 10 12 12
13 13 14 13 13 11 8 8 9 7 8 8 8 6 5 4 4 5 6 6 7 7 7 7 7 7 7 6 7 9 10 10 10 11 12 12 12 12 12 13 14 14 13 13 12 12 11 10 9 8 8 7 6 5 5 4 5 7 7 5 7 11 12
14 14 15 13 14 13 9 8 7 7 8 8 8 7 5 4 4 5 6 6 7 8 8 7 6 6 5 6 8 9 10 10 9 10 11 11 12 13 14 15 16 15 15 15 14 15 15 14 12 8 5 4 4 4 4 3 3 4 6 6 6 8 11
14 14 15 12 11 12 10 8 7 6 7 7 8 7 6 5 5 5 6 6 7 8 8 8 7 6 6 6 8 9 8 9 9 10 11 12 13 13 14 15 15 15 15 14 14 13 14 14 13 12 10 7 4 4 4 4 3 3 4 6 6 7 8
15 13 14 10 7 10 11 10 9 7 7 7 7 7 7 6 6 6 6 6 6 7 7 8 8 8 7 8 8 9 8 8 9 11 12 11 12 12 13 13 13 13 12 11 11 10 10 11 11 11 11 11 9 8 5 4 4 3 3 4 6 6 7
15 13 13 10 7 9 11 11 10 9 8 8 8 7 7 7 6 6 5 5 5 5 6 6 7 7 7 8 8 9 8 8 9 11 11 11 10 10 10 10 10 10 9 8 8 8 8 9 10 10 9 10 10 9 6 5 5 5 4 4 4 5 7
15 14 13 10 8 9 11 11 10 9 10 10 9 8 7 7 7 6 5 4 4 4 4 4 5 5 6 6 6 7 7 8 8 9 9 9 9 8 8 8 8 7 7 7 7 8 8 9 9 9 9 8 9 8 7 6 6 6 4 3 4 4 6
17 15 13 11 11 11 12 12 11 11 11 10 9 9 8 7 7 6 5 4 4 3 2 2 3 3 3 3 4 4 5 6 6 6 6 7 6 6 6 6 7 6 5 5 6 7 7 7 7 7 8 7 8 8 7 6 6 6 5 4 3 3 5
17 15 13 12 13 13 13 13 13 12 12 12 10 10 9 8 7 7 6 5 4 4 3 3 2 2 2 2 1 2 2 3 3 4 4 4 4 4 4 4 5 5 5 5 5 6 6 7 6 6 7 8 8 8 8 7 6 5 5 4 3 2 3
15 14 14 13 13 15 15 14 14 14 13 13 12 11 10 9 8 7 7 6 5 4 4 4 4 4 3 3 3 2 2 2 2 2 3 3 3 4 4 4 4 4 4 5 5 5 6 6 6 6 6 7 7 7 8 8 7 6 5 4 3 2 2
15 15 14 13 13 16 18 16 15 15 15 15 13 13 12 10 8 7 7 7 6 5 4 4 4 5 5 5 4 4 4 4 4 4 5 5 4 5 5 5 5 5 5 5 5 5 5 5 5 5 5 5 5 6 6 7 7 6 5 4 3 2 3
15 16 16 15 15 17 20 19 17 16 17 16 16 15 13 11 9 8 8 8 8 7 5 4 4 4 5 6 6 6 6 6 7 7 7 8 8 8 7 7 7 7 7 6 5 5 5 5 5 4 4 4 4 4 4 5 6 6 5 5 3 2 2
16 16 16 15 15 17 20 21 19 18 18 18 16 16 14 12 11 11 10 9 7 6 5 5 5 5 5 6 7 7 8 8 9 9 9 9 10 11 11 10 9 9 9 8 6 6 6 6 6 5 4 4 3 3 3 4 4 4 4 4 3 2 2
13 15 15 14 14 16 20 22 21 20 19 19 17 15 14 13 13 11 9 8 7 7 6 5 5 6 7 8 10 10 10 10 10 11 11 10 11 12 13 14 13 12 11 11 10 9 8 8 8 8 7 6 4 3 2 3 3 3 3 2 2 2 2
11 13 14 15 15 16 19 21 22 21 20 20 18 15 13 13 12 10 9 8 9 8 8 8 7 6 7 9 11 12 12 12 13 12 12 12 12 13 14 16 16 15 14 13 13 13 12 11 11 11 10 8 6 4 2 2 3 2 1 2 2 3 4
10 12 14 15 16 17 18 19 21 21 20 19 16 13 12 11 11 9 7 7 7 7 8 9 8 8 10 11 12 12 13 14 13 12 12 12 12 12 13 15 16 16 15 14 14 15 15 13 13 13 11 9 7 5 3 3 2 1 1 2 2 3 5
9 11 11 12 13 14 15 17 18 18 18 17 14 12 11 10 10 8 6 6 6 6 8 9 8 10 13 13 12 12 13 12 11 11 12 12 12 12 12 14 15 14 15 15 15 16 16 15 14 14 11 8 8 6 5 3 2 1 0 1 2 3 5
10 10 10 11 11 11 12 14 15 16 16 15 12 11 10 11 12 11 11 13 13 11 11 11 10 11 12 11 12 12 11 11 10 11 12 12 12 11 11 13 14 13 12 12 13 16 17 16 17 15 13 11 10 8 6 4 3 1 1 2 3 4 5
10 11 11 11 11 10 11 13 14 14 14 12 11 11 13 14 14 14 14 15 16 16 16 14 12 12 10 9 9 9 9 8 9 10 10 10 11 10 10 11 11 12 11 9 10 14 16 18 19 17 15 14 12 9 7 5 4 3 4 5 4 4 5
9 10 11 11 12 12 13 14 15 14 13 11 12 16 19 16 14 15 15 13 14 16 16 13 12 11 9 8 7 6 6 5 6 6 7 8 8 8 8 9 8 9 10 8 8 11 14 18 21 19 17 15 12 9 7 6 5 6 6 5 5 4 5
8 9 9 9 10 11 12 13 15 15 14 15 16 18 17 15 13 13 13 12 11 11 10 10 11 11 10 9 8 7 5 4 4 4 6 7 7 7 8 9 8 7 8 8 6 7 12 18 22 20 18 15 11 9 7 5 5 5 5 5 4 4 6
9 8 9 8 8 9 10 10 12 13 14 16 16 15 14 13 12 11 10 10 9 9 9 10 11 11 11 11 9 8 7 6 4 4 5 6 7 8 8 8 7 5 5 5 4 5 11 19 22 19 16 12 9 7 6 5 5 5 4 5 5 5 6
11 10 9 10 9 8 8 9 10 12 13 14 13 12 11 10 10 9 9 9 10 10 10 10 10 11 11 11 11 9 8 8 7 6 5 4 3 3 4 4 3 2 2 2 3 6 13 18 19 16 12 10 8 6 6 5 5 5 5 6 6 6 7
11 11 11 10 11 10 9 10 11 12 13 13 12 12 12 12 11 11 10 10 9 9 9 9 9 10 10 10 10 9 9 9 8 8 6 3 2 2 2 1 1 1 2 2 4 8 13 14 14 12 10 9 7 6 6 5 4 4 5 6 7 8 8
7 8 10 10 8 9 9 10 11 12 13 14 15 15 15 14 14 12 11 10 8 7 7 6 7 8 8 9 9 9 10 10 10 9 7 6 6 6 5 4 4 4 4 5 6 9 10 10 9 9 8 7 6 6 5 4 2 2 3 4 6 8 9
6 5 6 6 6 10 12 13 14 14 15 15 16 16 15 14 13 12 11 10 9 7 6 5 5 6 7 8 9 9 10 10 10 10 9 8 9 9 8 7 7 6 6 7 8 9 8 7 6 6 6 6 6 6 5 4 3 2 3 5 7 9 10
12 9 7 6 9 14 16 16 17 17 18 18 17 17 15 14 12 10 9 8 8 7 7 6 5 5 6 7 8 9 10 10 9 10 10 10 10 11 11 10 10 9 8 8 8 8 7 6 6 6 7 6 5 5 3 2 3 4 5 6 8 9 9
14 13 10 9 11 15 18 18 19 20 20 20 20 19 17 14 13 11 8 7 7 7 7 6 5 4 3 4 5 7 8 8 8 8 10 12 12 13 13 13 12 11 9 9 8 7 7 6 6 6 5 3 2 2 1 1 3 4 5 6 7 8 8
15 15 13 12 12 15 19 20 21 21 22 22 22 20 18 16 15 13 10 7 6 5 4 4 4 4 3 1 2 4 6 6 7 8 10 12 13 14 14 14 13 11 9 7 7 6 5 5 4 2 1 0 2 3 3 3 4 5 6 6 8 8 9
16 15 15 14 13 14 17 20 21 22 23 24 23 22 20 17 15 12 9 7 6 4 3 2 2 2 3 3 3 5 6 7 7 8 10 11 14 15 14 13 12 10 9 7 6 5 4 3 2 2 1 2 4 5 5 4 5 6 6 7 8 9 9

ECMWFFLT1_925_spd_030.txt.gz
Wind_Speed
10 11 10 9 8 8 8 8 7 7 6 5 5 5 5 4 4 5 5 5 5 4 4 3 3 3 2 2 3 3 4 4 5 5 5 5 5 4 5 6 5 3 3 3 4 7 4 5 6 7 9 9 10 10 9 9 9 9 9 8 9 9 10
11 12 11 10 9 9 9 8 8 7 7 6 5 5 4 4 4 5 6 6 6 5 5 5 5 5 4 3 2 2 3 3 3 3 3 4 4 4 5 5 4 4 5 5 7 10 5 5 5 6 9 9 10 10 9 10 10 10 9 9 9 9 9
12 11 11 10 9 10 10 9 8 8 7 6 5 5 5 5 5 6 6 6 6 6 5 5 5 5 4 4 3 3 3 3 3 2 3 4 3 3 4 5 5 6 6 5 5 6 3 5 5 6 9 9 9 9 8 9 9 9 9 8 8 8 9
13 12 12 11 10 10 10 9 9 8 7 8 7 6 5 6 6 6 6 6 6 5 5 5 4 4 4 4 4 4 4 4 3 3 3 3 3 3 3 3 5 5 5 5 5 5 4 5 5 6 8 9 10 9 8 8 8 8 8 8 8 8 8
14 14 13 13 12 11 10 9 9 9 8 8 9 8 6 6 6 6 6 6 5 5 5 5 5 5 5 5 5 5 5 5 5 4 4 5 4 4 4 3 3 3 2 2 4 5 5 5 6 6 7 8 9 9 9 8 7 8 7 7 8 7 7
14 14 14 14 13 11 11 10 10 10 9 9 9 9 7 6 6 6 6 6 6 6 6 6 7 7 6 6 6 6 6 6 5 5 5 6 6 5 5 4 3 3 3 2 2 3 4 6 6 6 7 7 7 8 9 8 7 7 7 7 7 7 7
13 13 13 13 13 11 10 11 10 11 10 10 10 9 8 6 6 7 7 7 7 7 8 8 8 8 7 7 7 7 7 7 7 7 7 7 7 5 5 4 5 5 5 4 3 3 4 5 6 6 6 6 6 6 7 7 6 5 6 6 6 6 6
12 12 12 12 12 11 11 11 10 11 11 11 10 9 8 7 8 9 9 9 9 8 9 9 8 8 7 7 8 8 8 8 8 8 7 7 6 6 5 5 5 6 5 5 4 3 3 3 5 6 5 5 5 4 5 6 5 5 5 5 6 6 6
12 12 12 12 12 12 11 11 11 12 12 12 11 10 9 8 9 10 10 10 10 9 9 9 8 7 7 8 8 8 8 7 7 7 7 7 6 6 6 6 6 7 7 6 5 5 4 3 4 5 5 5 4 4 4 4 5 5 3 3 5 7 6
11 12 13 14 14 13 11 11 12 12 12 13 12 10 9 9 10 10 11 11 11 10 9 8 8 7 7 8 8 7 7 7 7 7 7 7 7 7 7 7 7 8 7 7 7 7 6 5 4 4 3 3 3 3 4 3 3 5 4 3 4 6 6
10 13 15 15 14 13 11 11 12 13 13 13 13 12 11 10 10 11 11 11 11 10 9 9 8 8 8 8 8 8 7 7 7 7 7 7 7 7 7 7 7 7 7 7 7 7 6 6 5 4 3 1 0 0 2 4 4 4 5 4 5 5 5
10 12 14 14 14 12 11 11 12 12 13 13 13 13 12 11 11 11 11 11 11 10 10 9 9 8 8 9 8 8 8 8 8 8 8 8 7 7 7 7 7 7 7 7 6 6 6 6 6 5 6 5 5 4 2 3 5 4 4 4 4 4 4
10 12 13 13 12 12 11 11 12 12 12 12 13 13 12 12 11 11 12 11 11 10 10 9 9 9 9 8 8 8 8 8 8 9 8 7 7 7 7 7 7 6 6 5 5 5 5 6 6 6 7 7 7 6 4 4 6 6 4 4 4 3 3
12 13 14 13 11 11 11 11 11 12 11 12 13 13 12 12 12 11 12 11 11 11 10 10 9 9 9 8 8 8 8 8 8 8 8 7 7 7 7 7 6 5 5 5 5 5 5 5 5 5 5 6 6 5 4 5 7 7 5 3 3 3 2
13 13 14 13 10 11 11 11 11 12 11 11 12 13 12 12 12 12 11 11 11 11 11 10 9 9 9 9 8 8 8 8 8 8 7 7 7 7 6 6 6 5 4 5 4 4 5 4 4 5 4 4 5 5 4 4 5 6 6 5 4 3 2
13 12 13 12 10 10 11 11 11 11 11 11 12 12 12 12 12 12 12 11 11 11 11 10 9 9 9 9 8 8 7 7 7 7 7 7 7 7 6 6 6 5 5 5 4 3 4 3 2 4 4 3 4 4 3 2 3 4 5 5 4 3 2
11 11 10 10 10 10 11 11 11 11 11 11 11 11 11 12 12 12 12 12 11 11 10 10 9 9 9 9 8 8 7 7 6 6 6 6 6 6 6 6 6 6 5 5 4 3 3 3 2 3 3 3 3 3 3 2 1 2 4 5 3 2 1
8 9 9 9 9 10 10 10 11 11 10 10 11 11 11 11 11 11 11 12 12 11 11 11 10 9 9 8 7 7 6 6 6 6 5 6 5 5 6 5 6 6 5 5 4 3 3 3 2 2 2 2 3 2 2 2 1 0 1 3 3 2 1
6 7 8 9 10 10 10 10 11 11 10 10 11 11 11 11 11 10 10 11 11 12 12 11 11 11 10 9 8 7 7 6 6 6 6 6 6 6 6 6 6 7 6 6 5 4 4 3 2 1 1 1 1 2 1 1 1 0 0 1 2 2 1
7 8 9 10 10 10 10 10 11 11 10 10 11 11 10 10 10 9 9 10 11 11 11 11 11 11 10 10 9 8 8 7 7 7 7 7 7 7 7 7 7 8 8 7 7 6 6 5 4 2 1 1 2 1 2 1 1 1 1 1 1 1 1
7 8 9 10 10 10 10 9 10 10 10 11 11 10 10 10 10 9 9 9 10 10 10 10 10 10 9 9 8 8 7 7 6 7 7 7 7 8 9 9 9 9 9 10 9 8 8 8 7 6 6 4 3 3 2 2 2 3 3 3 4 3 2
5 6 7 8 9 8 8 8 9 10 10 10 10 10 10 10 10 10 10 9 9 9 9 9 9 9 8 8 7 7 7 6 6 6 7 8 8 9 10 10 11 11 12 13 12 11 11 11 9 8 8 7 6 5 4 4 4 4 4 5 6 5 5
3 4 5 7 7 7 7 6 7 9 9 9 9 9 10 10 10 11 11 11 11 10 9 10 11 11 10 9 8 7 7 7 6 7 8 9 9 10 10 10 11 13 14 14 14 13 13 13 12 10 8 8 8 7 5 5 5 4 5 6 6 5 6
2 3 3 5 6 6 6 6 6 7 8 8 9 9 10 11 11 11 11 12 12 11 10 11 11 11 11 11 9 8 7 7 8 9 10 10 10 10 10 10 10 11 11 11 13 14 14 14 13 12 11 11 10 9 7 5 4 3 4 6 5 4 6
1 2 3 4 4 4 5 5 5 6 7 8 8 9 9 9 10 10 11 12 12 11 12 12 11 11 12 13 11 9 8 7 8 9 10 10 10 9 9 9 8 8 8 9 12 13 14 15 14 14 14 14 13 12 10 7 4 2 2 4 4 5 5
1 2 3 3 4 4 4 5 5 6 6 8 8 9 9 9 10 11 11 12 13 12 12 14 14 14 15 14 13 12 10 9 9 9 9 9 9 8 7 7 7 8 7 8 9 10 12 14 16 16 16 15 14 14 12 9 7 5 3 3 4 5 4
0 1 2 3 4 5 5 6 6 6 7 9 9 8 9 10 11 12 12 13 14 13 14 16 17 17 16 15 14 13 12 10 9 8 7 7 7 6 6 6 6 7 7 6 7 9 10 13 16 18 16 14 14 13 10 8 7 6 4 3 4 4 3
3 1 2 4 5 6 7 7 8 8 9 11 12 11 12 12 11 12 14 14 14 14 14 16 16 17 16 15 14 13 11 10 8 8 7 6 5 5 5 5 5 6 6 6 7 9 11 11 13 16 15 12 10 10 9 7 6 5 3 3 3 3 3
5 4 2 3 4 6 7 7 9 10 10 12 14 14 13 12 11 12 13 13 12 12 14 15 16 16 16 14 14 13 11 10 9 8 7 5 4 4 4 4 5 5 5 6 9 10 12 11 12 14 14 12 10 9 10 10 8 6 6 6 6 6 7
5 5 5 4 4 5 6 6 7 9 10 11 12 12 12 12 11 11 11 11 11 10 11 13 15 15 15 15 15 13 11 10 9 8 7 5 5 5 5 5 5 4 5 8 9 10 12 12 13 14 13 12 10 8 9 9 7 7 8 8 9 10 10
7 6 6 6 5 6 7 7 7 8 9 10 10 10 9 8 8 9 9 10 10 9 10 13 14 15 16 16 16 13 10 10 9 8 7 6 5 5 5 6 6 6 6 7 8 9 12 13 12 12 12 11 10 8 7 7 6 7 8 8 9 10 11
8 8 7 7 7 7 8 8 8 9 10 10 10 9 9 8 9 9 10 12 12 10 10 13 14 14 15 15 16 13 10 9 9 8 8 8 7 6 6 6 7 7 6 7 8 10 14 12 9 10 11 9 8 7 6 5 4 3 4 5 6 8 10
8 9 9 8 8 7 7 8 8 9 10 10 11 11 11 12 12 12 13 14 13 11 10 11 13 13 13 14 15 14 10 9 9 9 9 9 8 8 7 7 8 8 7 7 9 11 15 13 9 8 8 7 7 7 6 6 5 4 4 5 6 7 8
8 9 10 10 9 9 8 8 9 10 10 10 11 13 14 14 14 14 14 13 13 12 11 12 12 12 12 13 15 15 11 8 8 9 9 9 9 8 8 8 9 9 8 8 9 11 14 14 11 9 8 7 8 7 5 4 3 4 4 5 7 8 8
10 9 10 10 10 10 10 9 9 10 11 11 12 13 14 14 14 14 13 12 13 13 13 12 12 13 13 13 14 15 11 8 9 10 9 9 10 9 10 11 12 12 10 10 11 11 12 13 11 9 8 8 7 5 3 2 2 4 5 6 7 8 8
11 10 10 10 11 11 11 11 11 11 11 12 14 15 15 15 15 15 14 13 14 15 15 14 13 13 14 13 13 14 13 12 12 11 10 11 11 11 12 14 14 13 12 11 11 11 11 10 9 7 6 5 3 1 1 1 2 3 4 6 7 8 8
14 13 12 11 11 12 13 13 13 14 14 15 16 16 16 17 17 16 16 17 19 19 18 16 14 14 14 14 14 14 14 14 14 12 9 10 12 13 14 15 15 14 13 12 12 11 9 8 7 5 4 2 2 3 1 1 2 3 5 6 6 7 8

ECMWFFLT1_925_spd_033.txt.gz
Wind_Speed
12 12 11 9 8 8 8 7 7 6 5 5 4 3 3 3 3 2 3 3 3 4 4 4 4 5 4 4 4 4 5 5 5 4 4 4 4 5 6 5 4 8 8 5 4 6 4 3 4 6 7 8 10 11 11 12 12 11 10 10 11 11 11
13 12 11 10 9 9 8 7 7 7 6 5 4 3 3 3 3 2 3 4 4 4 5 5 5 6 5 5 3 2 3 2 2 2 4 3 0 0 5 5 5 8 8 6 6 6 3 4 5 5 7 8 9 10 10 10 11 11 10 10 10 11 11
13 12 11 10 9 9 8 7 7 6 6 5 5 4 3 3 3 3 3 4 5 5 5 5 5 6 6 6 5 4 4 3 3 2 1 4 4 1 2 4 4 4 6 5 5 6 2 2 3 6 7 8 8 8 9 9 10 10 10 10 10 10 10
12 11 11 10 9 9 8 7 6 6 6 6 6 5 4 4 4 4 3 4 5 5 5 5 5 6 6 6 6 5 5 4 4 4 4 5 5 2 3 4 3 3 4 3 2 5 4 2 3 6 7 8 9 9 8 8 8 9 10 10 10 10 9
12 11 11 10 10 9 8 7 6 6 5 6 6 5 5 5 4 4 3 3 4 5 5 5 5 6 6 7 7 6 6 6 5 5 5 5 5 5 5 5 5 5 5 5 2 5 7 4 4 6 7 7 8 8 8 8 8 9 9 9 10 9 9
11 11 10 10 9 8 7 7 6 6 6 6 6 5 5 5 4 4 3 3 5 5 6 6 6 6 7 7 8 7 8 8 7 7 8 7 6 7 6 6 6 5 6 6 4 6 7 6 5 6 7 7 7 8 9 8 8 9 9 9 9 8 8
11 11 10 9 8 7 6 7 6 5 6 5 6 6 5 5 5 5 4 5 6 7 7 8 7 7 7 8 9 9 9 9 9 9 9 9 8 8 7 7 7 6 6 6 5 7 8 7 6 6 7 7 5 7 9 8 8 8 8 9 8 8 8
11 10 10 9 8 7 6 6 5 5 6 6 6 6 6 6 6 6 6 6 7 8 8 8 8 8 8 9 10 10 10 9 10 10 10 10 9 9 8 7 8 8 7 6 6 6 7 7 6 5 5 5 3 4 6 7 8 7 7 7 8 8 7
10 10 9 9 8 7 6 6 5 6 7 7 7 6 7 7 8 8 7 7 8 8 8 8 8 8 8 9 10 10 10 9 10 9 9 10 10 9 9 8 8 9 9 8 8 8 8 7 6 5 4 4 3 3 4 4 6 6 5 6 7 8 7
10 9 9 9 9 8 7 6 6 7 8 8 8 7 7 7 8 8 8 8 8 8 8 8 8 9 9 9 9 10 9 9 10 10 9 9 9 9 9 9 10 10 10 10 10 10 8 7 7 4 2 2 2 2 4 3 4 5 5 5 6 7 6
10 9 10 10 9 8 7 6 7 8 8 9 9 8 8 8 8 7 7 7 8 8 8 8 8 8 9 9 9 9 9 9 9 9 9 9 9 9 9 10 10 11 11 11 11 11 9 8 7 5 4 4 4 3 4 5 3 5 5 4 6 6 5
10 10 11 11 9 9 8 7 7 8 9 9 9 9 9 8 8 7 7 7 8 8 8 8 8 8 8 9 9 9 9 8 9 9 9 8 8 9 10 10 11 10 10 10 10 10 9 8 7 6 6 6 6 7 3 5 4 5 5 4 4 4 4
11 12 12 11 10 9 9 8 8 9 10 10 10 10 9 9 8 8 8 8 8 9 9 8 8 8 9 9 9 9 9 9 9 9 8 8 8 9 9 10 10 9 8 9 9 8 8 8 7 7 7 6 6 6 6 6 6 5 5 4 3 3 3
12 13 12 11 10 9 9 9 9 10 10 10 10 10 9 9 9 8 8 9 9 9 9 9 9 9 9 9 9 9 9 9 9 9 8 8 8 8 8 8 9 8 7 7 7 6 6 6 5 5 5 5 5 4 4 6 7 6 4 2 2 3 2
13 12 11 11 11 10 10 10 10 10 10 10 10 10 10 10 9 9 9 9 9 9 10 9 9 9 9 10 9 9 8 9 9 9 8 8 7 7 7 7 7 6 6 5 3 4 5 3 3 4 4 4 5 3 3 3 4 5 5 2 2 3 2
12 12 12 12 12 11 11 11 11 11 10 11 11 10 11 11 10 9 9 9 9 9 10 9 9 9 10 10 9 8 8 8 8 8 7 7 7 6 6 6 6 5 5 4 2 3 4 1 1 4 4 3 4 3 3 3 1 1 3 2 2 3 3
12 12 12 12 12 12 12 11 11 11 11 11 11 10 11 11 11 10 10 9 10 9 10 9 9 9 9 9 9 8 8 8 7 7 6 6 7 6 6 6 5 5 5 5 3 3 3 2 1 3 3 2 3 3 3 2 2 2 1 1 1 2 2
12 12 12 12 11 11 12 12 12 12 11 11 11 11 11 11 11 11 11 10 11 10 10 10 10 10 9 9 8 8 8 8 7 7 7 7 7 7 7 6 6 6 6 5 5 4 5 4 2 3 3 2 3 4 2 0 1 2 2 2 1 2 4
12 13 13 12 11 11 11 12 12 12 12 12 12 11 12 12 12 12 12 11 11 11 11 11 11 11 11 10 10 9 9 8 8 8 7 7 8 7 8 8 8 8 7 7 6 5 5 5 3 4 3 2 2 5 2 2 2 2 3 4 3 3 3
11 13 13 11 11 10 10 11 12 12 12 13 13 13 12 12 12 12 12 12 12 12 12 12 12 12 12 11 11 11 10 10 9 9 8 9 9 9 9 9 9 9 9 8 8 7 7 7 5 4 4 3 3 4 3 5 3 3 3 4 5 5 4
9 11 11 10 10 10 10 11 12 12 12 13 13 13 13 13 12 12 12 12 13 13 13 13 12 12 13 12 12 12 11 11 10 10 10 10 10 10 10 10 10 11 11 10 10 9 9 9 8 6 6 6 6 5 5 5 4 5 6 6 6 6 7
7 9 10 10 10 11 10 11 11 12 12 13 13 13 13 13 13 12 12 12 13 13 14 13 13 14 13 13 13 12 12 12 11 11 11 11 12 12 12 12 12 12 13 13 13 13 12 11 9 8 8 8 8 7 7 6 6 6 8 8 7 7 7
6 8 10 10 10 10 10 10 10 12 13 13 13 13 13 13 14 14 13 13 14 14 14 13 15 16 16 14 13 13 12 12 12 12 12 12 13 14 14 14 14 15 15 16 17 17 15 14 12 9 9 9 8 8 8 7 7 7 7 7 8 9 8
4 5 6 7 8 8 9 9 9 10 11 12 12 12 13 13 14 14 14 15 15 15 14 14 16 19 19 16 15 13 12 12 12 12 13 13 14 15 15 14 13 13 15 17 18 18 16 14 14 13 12 12 10 9 8 7 6 6 7 7 8 8 7
4 4 4 5 5 6 7 7 8 8 9 10 10 11 12 13 13 14 14 15 15 15 15 15 18 21 21 20 18 15 13 13 14 14 15 15 16 16 16 16 13 11 12 14 16 18 18 16 15 16 15 15 14 13 11 9 5 3 4 5 5 6 5
3 3 3 4 5 5 6 7 8 8 9 10 10 11 12 13 13 13 14 15 15 14 14 15 17 20 21 21 21 19 15 13 15 16 16 16 17 16 14 15 15 12 11 14 16 16 17 18 17 17 17 16 16 16 15 13 10 6 3 2 2 4 5
2 2 3 3 4 5 6 7 7 8 9 10 12 12 11 12 13 14 14 15 15 14 13 15 17 19 19 18 19 20 18 14 13 15 15 15 15 13 9 8 12 12 12 15 17 15 15 16 17 17 17 16 15 16 15 13 12 11 7 3 3 3 2
3 2 1 2 3 5 6 7 8 8 9 10 12 11 12 13 14 15 16 16 16 16 15 16 18 19 20 19 19 20 19 14 12 13 16 16 14 13 9 7 10 14 15 16 16 15 14 14 15 16 16 14 11 11 12 11 9 8 6 4 3 3 2
3 3 2 1 3 5 6 7 8 9 10 11 12 12 14 15 15 16 17 18 19 19 18 18 19 21 22 22 21 20 17 14 12 12 13 14 12 11 9 7 9 12 14 15 15 14 15 13 12 13 14 13 10 10 13 15 13 10 8 6 6 7 8
4 4 4 3 4 4 5 6 8 9 11 12 12 13 15 15 15 16 17 18 19 19 18 19 20 21 22 22 21 19 16 14 14 12 11 11 10 9 8 7 7 7 9 12 13 13 15 14 11 11 13 13 11 10 12 15 14 11 9 9 9 9 10
7 6 5 5 4 4 5 6 7 9 10 12 13 14 14 15 15 15 15 16 16 16 16 17 19 20 21 22 22 19 16 15 16 14 12 11 8 7 9 9 7 6 7 10 10 10 13 13 10 10 12 12 11 9 9 12 13 11 10 9 9 9 9
8 8 7 7 6 6 7 8 8 9 10 11 13 13 13 13 13 12 12 13 14 15 15 16 17 18 19 20 21 20 17 15 15 14 12 11 8 6 8 10 10 8 7 8 8 9 13 13 9 9 11 11 10 9 8 9 9 7 7 6 6 7 8
8 8 9 9 9 9 9 9 10 10 10 12 13 13 13 12 12 11 11 12 14 15 14 15 16 16 17 19 21 21 16 13 13 13 12 11 9 8 7 9 11 9 7 7 9 12 16 13 8 9 11 9 10 10 10 9 8 6 4 4 5 6 7
10 10 10 11 12 12 11 11 12 12 12 13 13 13 13 12 11 11 12 13 14 14 14 15 16 17 18 19 21 20 15 11 11 12 12 11 10 9 9 9 11 10 8 8 11 15 16 12 8 9 9 5 6 10 10 7 7 6 4 5 7 7 7
12 12 13 13 13 13 13 13 14 14 15 16 15 15 16 16 14 13 14 14 14 14 14 16 18 19 19 18 19 19 17 12 9 9 11 11 10 10 10 11 13 12 10 10 13 16 16 13 11 11 9 5 5 8 7 4 4 5 5 6 6 6 7
15 14 14 14 14 15 15 15 15 16 16 17 18 16 16 17 16 14 15 14 12 12 14 17 18 18 18 18 17 19 19 15 10 9 10 10 9 10 11 13 15 13 12 12 12 14 14 12 11 9 8 7 6 5 4 4 4 4 5 5 6 7 7
16 16 16 16 16 16 16 16 17 18 18 18 19 18 17 18 18 16 16 16 14 13 14 16 18 18 18 19 17 18 20 17 13 11 9 8 10 12 12 15 17 15 14 13 12 11 11 11 9 7 6 6 5 3 3 4 4 4 4 5 6 6 6

ECMWFFLT1_925_spd_036.txt.gz
Wind_Speed
8 9 8 7 7 8 8 7 7 7 7 7 7 6 7 7 7 7 5 5 6 6 5 3 2 3 5 5 4 5 6 5 5 6 6 5 6 7 7 5 3 5 7 6 6 7 5 4 7 9 13 16 14 12 11 10 12 13 15 15 14 13 12
9 9 7 6 8 8 7 7 7 8 7 7 6 6 7 7 7 7 6 5 4 6 6 4 4 5 5 5 5 5 6 6 6 7 7 9 10 10 9 8 5 6 5 6 7 8 8 6 4 4 10 14 13 13 13 12 13 13 14 13 13 12 9
10 8 7 7 8 7 7 6 7 7 6 6 6 5 6 7 7 8 7 6 6 6 7 7 6 7 6 7 6 5 6 6 6 7 8 9 10 11 11 9 8 8 5 5 6 7 8 6 4 6 11 11 10 12 15 14 13 13 13 13 14 13 9
10 9 9 8 7 7 6 6 6 6 6 7 6 5 6 7 6 7 7 7 8 7 7 7 6 7 8 8 8 8 7 7 8 9 9 11 11 12 12 9 9 9 6 6 6 7 6 5 5 6 10 13 11 12 14 15 15 14 13 13 12 12 9
10 10 10 9 8 7 7 6 6 6 7 7 7 6 7 7 6 6 7 7 8 8 7 6 7 8 8 8 9 10 9 9 10 10 11 12 12 13 14 11 10 10 8 8 11 10 7 10 12 7 10 15 11 9 13 15 15 15 14 13 12 12 10
11 10 10 9 9 8 7 7 7 7 8 8 8 7 7 7 6 6 8 8 8 8 7 7 8 8 8 9 10 11 11 11 12 13 14 13 12 13 13 13 12 12 10 10 13 13 10 14 15 10 12 17 13 11 13 15 16 14 14 13 12 12 10
12 10 10 9 9 8 7 7 7 7 8 8 9 8 7 7 6 7 10 10 8 8 8 8 8 9 10 11 11 12 13 13 14 15 14 13 12 12 12 13 13 12 12 12 14 16 14 15 14 9 12 15 15 15 15 16 16 14 13 12 10 10 9
13 11 10 9 8 7 7 6 6 7 9 9 9 9 8 8 8 9 10 11 10 10 9 8 9 10 13 12 12 13 13 13 13 14 14 13 12 12 12 13 12 11 12 12 11 14 16 14 11 12 14 10 8 9 10 14 16 14 14 12 10 9 8
14 12 11 9 8 7 6 5 5 7 10 10 10 9 9 10 11 11 12 12 11 11 10 10 10 11 13 12 12 12 13 13 13 13 14 14 13 13 13 13 12 12 12 11 11 10 11 10 9 11 11 8 6 6 5 8 10 11 14 14 12 9 8
15 13 12 11 9 8 7 5 6 9 11 11 11 11 10 11 12 12 13 12 11 11 11 11 11 11 12 12 11 12 13 14 14 14 14 14 13 12 13 13 12 13 13 12 13 13 13 11 9 8 7 8 7 5 5 4 4 7 10 12 12 10 7
15 14 13 13 11 9 8 7 7 9 11 11 11 12 11 11 12 12 12 12 11 11 11 11 11 11 11 12 12 13 13 14 15 14 13 13 13 13 15 16 15 14 14 14 14 13 12 9 8 11 13 14 12 6 9 7 4 7 10 10 11 10 7
15 15 15 13 12 10 9 8 8 9 11 11 11 12 11 11 11 11 12 12 11 10 11 11 10 11 11 12 12 13 13 14 15 15 14 14 14 15 16 16 16 15 14 13 12 12 12 11 9 10 12 14 16 13 17 14 6 6 10 9 7 7 7
15 15 15 14 12 11 10 9 10 10 11 11 11 11 11 10 10 11 11 11 11 11 10 10 10 10 10 11 11 12 12 13 14 14 14 14 14 15 15 14 14 14 13 13 13 12 13 13 12 11 11 12 15 16 19 18 10 6 8 8 7 6 5
16 17 16 14 12 10 10 10 10 10 11 11 11 11 10 10 10 10 10 11 11 11 11 10 10 10 10 10 11 11 12 12 13 14 14 13 13 13 13 13 13 12 12 12 11 11 11 10 10 10 10 10 11 11 14 17 15 9 7 7 7 5 4
18 18 16 14 12 11 10 10 10 11 11 11 11 10 10 10 9 9 10 11 11 11 11 11 10 10 10 10 9 9 11 12 12 13 13 13 13 12 12 12 11 10 9 7 7 9 7 5 8 10 10 10 10 9 9 15 17 14 10 8 7 6 4
18 18 16 14 12 11 11 11 11 10 10 10 10 9 10 10 9 10 10 10 11 11 11 10 10 11 11 9 8 8 10 11 10 10 10 11 11 10 10 10 9 8 7 5 6 8 5 5 9 11 9 9 9 8 8 8 9 11 13 10 7 8 6
18 17 16 15 13 12 12 12 11 11 10 10 10 9 10 10 9 10 10 10 11 10 11 10 10 11 10 9 8 8 8 9 8 8 8 9 9 8 8 8 7 6 6 5 5 6 4 5 9 9 6 4 5 5 5 5 6 5 8 8 7 8 6
18 17 15 14 14 14 14 13 12 11 10 10 10 9 10 10 10 10 10 10 11 10 10 10 10 10 10 9 8 8 7 7 7 6 6 7 7 7 7 6 6 6 5 4 4 4 2 2 5 6 5 4 5 5 4 4 5 5 3 3 6 5 2
14 14 14 14 14 14 14 12 12 12 11 10 10 9 10 10 10 10 10 10 11 10 10 10 9 10 9 9 8 8 8 7 7 6 6 6 6 6 6 6 6 6 5 5 4 3 3 3 4 4 3 4 7 8 6 3 2 0 2 3 2 3 2
13 13 14 13 11 12 13 11 10 10 9 10 10 9 10 10 10 10 10 10 10 11 10 10 10 10 10 10 9 9 9 8 8 8 7 7 7 6 6 6 6 6 6 5 5 4 6 5 4 4 2 3 6 6 6 4 2 3 3 2 3 1 4
13 13 13 11 10 11 11 10 10 9 8 9 10 10 9 10 10 10 9 10 10 11 11 11 11 10 10 10 10 10 10 10 9 9 8 8 9 8 7 6 5 5 5 5 5 6 7 7 7 5 2 2 4 4 4 3 5 2 3 4 6 4 3
11 11 11 10 10 11 10 11 13 13 10 8 9 11 10 9 11 11 10 10 11 11 12 12 11 12 11 11 11 11 10 10 10 10 10 10 9 9 8 6 6 6 6 7 7 7 8 7 7 6 5 4 4 4 4 4 5 4 4 8 7 4 4
8 9 10 9 9 10 10 11 14 15 12 8 7 10 11 10 11 12 11 10 11 11 12 12 12 12 13 12 13 13 12 11 11 11 11 11 11 10 8 7 7 8 8 9 9 9 10 10 9 6 5 6 6 6 6 6 6 6 5 6 4 6 6
6 7 8 8 9 9 9 9 10 11 11 10 8 10 13 13 13 15 14 12 11 12 11 11 12 14 15 15 14 15 14 13 13 12 12 12 13 10 5 5 8 7 8 10 12 12 13 13 13 10 6 7 8 9 8 7 8 6 4 5 4 4 5
4 4 6 7 8 8 7 7 7 8 10 11 11 12 14 14 12 14 16 15 14 14 13 13 14 13 15 16 16 15 15 14 13 13 13 12 7 3 5 9 12 12 13 15 15 16 17 15 15 14 11 10 10 11 10 8 7 5 1 2 2 3 4
4 3 3 4 5 5 6 7 7 8 9 12 13 13 15 15 13 12 14 15 15 15 15 18 18 14 14 17 17 16 16 15 15 15 14 11 6 4 7 12 14 16 19 20 19 19 20 19 18 17 16 16 15 14 13 11 8 6 3 3 4 4 2
4 3 2 3 5 5 6 6 7 9 10 14 16 16 16 17 16 16 15 15 15 14 14 18 21 22 21 20 20 20 19 17 15 14 14 15 12 9 10 12 13 16 20 21 21 20 20 20 20 19 18 17 17 16 15 13 12 10 7 4 1 2 0
7 5 2 1 2 4 6 9 11 12 13 15 16 17 19 19 19 19 19 18 16 14 14 16 20 24 26 24 23 23 24 22 18 13 13 15 14 13 14 14 14 16 19 20 20 19 19 18 18 17 17 16 16 16 16 15 14 13 10 8 6 5 4
10 9 8 5 4 3 4 7 9 10 10 11 12 14 17 18 18 19 19 20 19 17 16 17 19 22 25 25 24 23 25 25 21 15 13 13 13 15 17 17 15 15 17 18 18 17 17 16 14 14 15 15 13 14 15 14 13 12 11 9 9 8 6
13 12 11 10 9 7 5 4 5 8 10 11 11 13 15 16 16 17 17 18 19 18 18 18 19 21 22 23 23 23 24 23 20 17 15 13 11 11 13 14 14 14 15 17 17 15 15 15 13 11 12 13 13 12 12 13 12 12 11 10 8 7 7
13 13 12 13 13 12 10 9 8 8 9 11 13 14 15 15 16 17 17 18 19 20 18 16 18 21 23 23 23 24 23 21 19 16 13 11 11 12 13 13 12 13 17 19 16 13 14 15 13 10 12 14 13 11 11 11 12 12 12 11 9 8 8
12 11 11 12 13 13 12 12 13 12 11 10 12 14 15 16 17 17 17 17 17 17 15 13 15 20 24 25 25 25 22 19 17 15 13 12 13 13 14 15 11 10 15 18 17 16 16 16 14 12 13 15 13 11 11 10 11 13 12 9 7 7 7
12 11 11 12 13 13 14 14 15 16 15 14 13 13 14 16 17 16 15 14 14 15 15 15 17 20 22 23 24 24 23 20 17 15 14 14 14 12 12 14 12 10 13 16 18 18 17 17 15 12 14 17 15 14 13 10 7 8 7 4 4 5 7
14 13 13 14 14 15 15 16 17 17 18 17 17 16 15 14 14 15 15 14 16 17 17 18 20 21 21 21 23 24 24 21 16 15 17 17 15 14 13 14 15 13 13 14 15 16 17 18 16 12 14 16 14 13 13 12 9 8 6 4 4 5 6
16 16 16 16 17 18 18 18 18 18 18 19 19 20 18 15 14 15 15 15 17 18 17 18 21 21 18 19 21 23 24 21 14 14 19 19 14 15 15 15 16 15 13 13 14 16 18 18 15 11 12 13 12 12 11 9 8 6 4 2 3 5 6
17 17 17 17 19 20 20 19 19 20 20 21 21 21 21 19 16 16 16 16 17 16 16 18 21 19 16 17 20 21 23 23 16 12 16 17 14 15 17 17 17 17 14 15 16 17 18 16 12 11 12 11 12 11 9 6 5 4 2 2 4 6 7
17 18 19 19 20 21 21 21 21 21 21 22 21 21 21 19 18 17 16 16 17 17 17 19 20 20 18 20 22 22 22 25 21 13 12 15 16 16 18 18 18 18 16 16 17 18 17 14 10 10 9 7 7 6 5 5 4 3 3 4 6 7 7

ECMWFFLT1_925_spd_042.txt.gz
Wind_Speed
23 21 19 16 14 13 13 12 10 9 10 9 9 9 9 8 7 5 4 6 7 7 6 5 6 6 5 6 7 8 9 10 10 12 16 17 15 12 9 7 7 12 16 12 10 12 6 2 4 5 9 13 14 13 11 13 14 13 13 12 11 10 9
23 22 21 18 16 14 13 12 11 11 11 9 9 9 8 8 7 6 4 6 8 8 7 6 5 6 6 6 7 9 10 9 9 9 13 16 16 15 13 12 13 15 13 9 14 17 9 6 4 2 7 11 12 13 13 16 17 14 13 12 10 10 9
23 23 23 21 18 16 14 13 13 12 11 10 9 9 8 9 8 7 6 8 9 9 8 7 7 7 7 6 6 8 8 8 8 8 9 12 15 16 16 18 19 18 12 8 12 15 11 8 5 6 10 10 10 10 11 17 17 14 13 11 10 10 9
25 25 26 23 20 18 17 15 13 12 11 10 10 10 9 9 8 8 8 10 12 10 9 8 7 7 7 7 6 7 7 7 7 7 8 10 14 17 17 20 24 23 17 13 15 17 13 10 8 7 10 11 10 10 14 18 17 14 12 10 9 10 10
27 28 27 24 21 20 19 17 15 13 11 10 10 10 10 9 9 11 12 13 14 12 9 8 8 8 7 7 7 8 7 7 7 7 8 9 13 17 17 17 20 22 21 20 21 21 19 19 16 9 9 11 9 11 19 21 16 14 12 8 8 9 10
28 27 25 23 21 20 20 19 17 14 12 10 10 10 10 9 10 12 13 12 12 12 11 9 8 8 8 8 8 8 8 8 9 8 8 9 13 17 17 16 16 17 19 21 21 20 21 25 21 12 11 12 11 13 19 18 15 13 11 8 7 7 9
27 25 23 22 21 20 20 18 15 14 13 11 10 9 9 10 11 11 11 10 10 12 12 10 9 9 9 10 10 9 10 11 11 9 8 9 12 15 17 16 15 15 18 21 20 20 24 25 22 17 13 11 13 15 13 14 15 11 9 8 7 7 8
24 23 23 22 21 19 18 17 15 15 14 13 11 9 8 9 10 11 10 8 9 12 13 12 11 11 10 11 12 12 12 12 11 10 9 9 10 11 14 15 14 14 18 22 21 21 25 26 24 24 19 11 9 9 9 10 11 9 11 10 7 5 6
22 23 24 22 19 18 17 17 17 16 15 14 12 10 8 8 9 10 10 8 9 12 14 13 13 12 12 13 14 14 13 11 10 10 9 9 9 10 11 13 14 16 20 22 22 22 25 25 24 25 25 19 10 5 5 6 4 6 12 12 8 5 5
21 22 23 21 18 17 16 17 17 16 15 14 13 12 10 9 8 8 9 10 10 11 14 15 14 13 14 14 14 15 14 11 11 11 10 10 10 11 11 11 13 17 20 20 22 24 24 24 23 23 25 26 20 10 4 3 4 8 12 11 8 8 7
20 20 20 19 17 16 15 17 17 17 16 14 13 12 10 9 9 9 11 13 12 13 15 16 15 13 14 14 13 14 14 13 14 15 14 13 13 13 13 12 14 18 19 17 19 23 24 23 22 21 22 25 26 21 12 7 5 9 14 12 9 10 11
19 19 18 18 17 15 15 17 18 17 16 14 11 11 10 11 12 13 14 14 13 14 15 16 15 13 13 13 13 13 13 14 16 17 17 17 18 17 16 15 16 18 18 16 16 20 22 23 23 22 22 24 27 27 23 15 5 8 15 13 10 10 11
19 19 18 18 16 15 16 18 18 17 14 12 11 12 12 13 14 14 14 13 14 14 14 14 14 14 14 13 13 13 13 14 16 17 17 17 18 18 18 19 20 21 21 19 19 19 19 22 25 25 25 26 26 24 24 19 9 9 15 14 11 11 11
20 19 17 16 15 15 16 17 16 14 12 11 13 14 14 13 13 13 13 14 14 13 14 14 13 14 15 15 14 14 14 16 17 16 15 15 16 16 17 20 22 23 24 23 21 19 17 17 21 26 28 27 25 23 22 19 14 12 13 13 12 12 11
19 19 16 15 14 14 15 15 14 12 11 13 14 14 13 13 13 12 12 13 13 12 12 12 13 15 16 16 16 16 16 17 17 15 15 16 17 17 17 18 20 21 21 21 20 17 15 14 15 21 28 29 26 24 21 19 17 15 13 13 14 14 12
16 17 16 14 13 14 14 13 12 10 11 13 13 12 12 12 13 12 11 13 13 12 11 12 14 16 16 16 16 17 17 18 18 17 17 17 18 18 18 18 17 16 17 18 17 14 13 13 13 16 24 27 26 24 20 17 16 16 16 15 14 15 15
10 12 15 14 12 13 13 13 12 11 11 12 12 12 11 11 12 11 12 13 13 12 12 13 14 15 15 15 16 18 19 19 18 18 17 16 17 17 18 17 14 13 14 14 13 12 11 13 14 16 21 23 22 20 18 16 15 15 17 18 15 14 15
10 9 13 12 9 11 13 12 12 11 11 12 14 14 12 12 12 12 12 12 13 13 13 12 13 14 14 14 15 17 19 18 17 16 15 15 16 15 15 14 13 11 12 12 11 11 12 13 14 16 18 18 18 16 14 14 14 13 16 19 18 15 14
15 10 10 9 8 11 12 11 12 12 12 13 14 15 14 13 13 13 12 12 12 14 13 12 13 13 13 14 16 16 16 16 16 15 15 14 14 14 13 12 12 11 11 12 12 12 13 14 14 15 16 16 16 14 13 13 13 13 15 18 18 17 15
16 14 13 11 9 11 12 12 12 13 13 13 13 14 16 15 14 14 13 12 13 14 13 13 14 13 12 15 18 17 15 16 17 16 15 14 14 13 12 12 12 12 12 12 12 12 12 13 13 14 15 15 14 13 13 13 12 12 15 17 18 18 16
17 18 19 13 8 11 15 13 13 13 13 13 12 13 16 15 14 16 16 14 15 15 14 14 15 15 14 16 18 18 17 17 17 17 16 15 14 13 12 12 12 13 13 12 11 11 12 13 13 14 14 14 14 14 14 13 11 11 14 17 18 18 16
18 19 20 12 4 8 13 14 14 13 13 14 12 12 16 15 14 16 18 17 17 17 15 15 16 17 16 16 17 18 18 16 15 17 18 17 15 15 14 14 13 13 13 13 13 12 12 13 14 14 14 14 15 15 15 14 12 11 13 15 14 14 13
17 15 13 8 5 7 9 9 12 12 10 12 12 12 15 16 15 15 17 19 20 20 18 17 17 18 17 17 16 17 19 16 14 17 19 19 18 17 16 16 15 15 14 14 14 14 13 13 14 13 14 14 15 15 15 15 14 12 13 13 12 12 12
10 8 6 4 6 9 8 6 8 9 7 7 9 11 12 14 14 14 15 17 19 20 21 21 19 19 19 19 18 18 19 18 16 17 18 19 20 19 19 18 18 17 17 16 16 15 14 14 14 13 13 14 15 15 15 16 15 14 13 12 11 12 14
6 6 4 3 5 8 9 8 6 7 6 2 2 6 9 10 10 12 14 15 14 15 19 22 23 21 21 21 20 20 20 20 20 20 20 21 21 21 21 21 20 19 19 18 18 18 17 17 16 16 16 15 15 15 16 16 17 16 15 14 13 13 15
7 5 3 2 3 4 7 8 7 6 6 4 4 4 5 7 8 8 10 11 12 12 13 18 23 24 23 23 22 22 22 23 23 24 24 24 24 24 23 22 22 21 20 20 20 20 20 20 19 19 18 18 18 17 17 17 17 16 15 15 14 14 15
15 12 11 9 7 5 1 2 3 3 4 5 6 9 9 9 9 8 9 9 10 11 11 14 18 22 23 23 23 23 23 24 25 26 26 26 26 25 25 24 24 23 22 22 21 21 21 21 21 21 20 20 20 20 19 18 17 16 15 14 14 14 15
23 21 20 20 18 15 11 7 6 6 6 6 8 11 12 11 10 10 11 11 10 10 11 12 14 17 20 21 21 22 22 24 26 27 28 28 28 27 26 26 26 26 25 24 23 23 23 22 22 22 21 22 22 21 20 19 17 16 15 14 13 13 14
23 22 22 21 21 21 18 15 13 11 8 7 8 9 10 9 9 10 11 12 13 13 12 12 12 14 16 17 19 20 21 22 24 26 27 28 29 28 27 27 27 27 26 25 24 25 24 24 24 24 23 23 23 22 21 19 17 16 14 12 10 10 12
21 21 20 20 20 19 17 15 15 13 11 10 10 10 11 11 10 10 11 11 13 15 16 16 15 15 16 16 18 19 20 21 23 24 25 26 26 26 27 29 30 29 28 28 27 26 26 25 25 25 25 25 23 21 20 18 17 15 13 11 10 10 10
20 20 20 20 19 18 16 14 14 13 13 13 13 13 14 13 12 12 12 12 12 14 16 17 17 18 19 19 19 20 21 22 23 24 24 24 24 25 27 29 30 30 31 31 29 27 26 26 26 26 26 26 24 22 20 18 17 16 14 13 13 12 10
18 18 19 19 18 18 16 15 14 14 14 15 15 15 16 16 16 15 14 15 15 16 17 17 18 18 19 20 21 21 22 22 22 23 24 25 26 27 27 27 27 29 30 29 28 27 26 26 26 26 28 28 27 24 22 20 19 18 18 17 15 12 10
17 17 17 17 17 17 17 16 16 16 16 16 17 17 17 18 18 18 17 17 17 17 18 19 20 21 21 21 22 22 23 24 24 25 26 25 25 27 27 27 27 28 28 28 29 29 28 26 25 25 28 29 27 24 23 21 19 18 18 17 14 11 9
16 16 16 16 15 15 16 16 17 17 17 18 18 18 18 18 19 19 18 19 19 19 19 19 20 22 24 24 24 24 25 26 25 26 27 25 25 26 27 28 28 29 28 29 30 29 26 24 24 25 28 27 23 22 22 22 19 18 17 15 13 12 11
14 14 15 15 14 14 14 14 14 15 16 16 16 17 18 18 19 19 18 17 18 18 18 19 20 22 24 26 26 27 27 27 26 26 26 25 26 27 28 29 29 28 28 28 27 25 23 22 23 25 26 23 19 19 21 22 20 19 17 15 14 14 12
14 14 15 14 13 13 13 14 13 14 15 15 15 16 16 17 19 20 19 18 16 16 16 16 17 20 23 26 29 30 30 29 28 28 28 27 28 29 29 28 27 27 27 25 22 22 23 22 23 24 23 20 18 18 20 21 21 20 18 16 15 14 12
14 14 14 14 14 15 15 15 15 15 15 16 16 16 17 18 19 20 21 21 19 17 17 16 16 17 19 23 27 31 33 33 31 30 30 29 29 30 29 28 27 25 24 21 18 18 21 24 24 23 20 19 19 20 22 22 21 21 19 16 14 13 12

ECMWFFLT1_925_spd_045.txt.gz
Wind_Speed
17 15 15 15 13 12 11 11 10 9 9 8 8 9 9 8 7 6 6 7 8 9 8 9 9 8 9 10 11 9 11 15 15 16 15 15 18 14 9 7 4 4 12 11 10 9 5 2 4 7 10 12 10 10 11 11 12 12 11 9 8 8 7
17 16 15 15 13 13 13 11 10 11 10 10 9 9 8 8 7 5 6 7 8 8 8 8 8 8 8 10 12 11 12 16 15 15 16 18 20 17 11 7 5 9 11 9 12 14 8 4 3 4 9 13 11 11 13 14 13 12 11 9 8 7 7
19 17 17 15 14 14 12 11 11 11 11 10 10 9 8 7 6 4 6 8 8 8 7 8 8 9 8 9 11 12 13 15 14 13 14 16 19 18 14 10 11 12 10 8 12 13 9 6 4 5 9 12 10 10 13 15 13 12 11 9 7 7 7
20 20 19 17 14 14 13 12 13 12 11 11 10 10 9 8 6 4 5 8 9 8 8 8 8 9 9 9 10 12 13 14 13 13 12 14 17 18 16 13 14 16 12 10 14 16 12 9 8 6 9 13 12 11 12 14 14 12 10 9 7 7 7
21 21 20 18 16 16 15 15 14 13 12 11 10 10 10 8 6 5 6 9 10 8 7 7 8 9 9 9 11 13 13 13 13 13 14 15 17 18 17 15 15 17 14 12 17 18 15 19 18 10 9 13 11 9 12 14 13 12 10 9 8 8 8
21 21 21 19 18 17 17 16 14 12 12 11 11 11 11 9 7 7 8 10 10 7 7 7 7 8 9 9 11 12 12 12 13 13 13 15 17 18 18 16 16 17 14 12 18 18 17 25 24 14 11 12 10 10 12 12 11 10 9 9 9 9 10
21 20 20 20 18 17 16 14 13 11 11 10 11 12 11 9 9 9 10 11 10 8 7 6 7 7 8 9 10 10 11 11 11 11 10 13 16 18 18 16 15 15 13 13 18 19 21 28 26 19 15 11 12 13 9 8 10 8 7 9 8 9 11
21 20 20 19 17 17 15 14 13 11 10 10 11 11 10 10 10 10 10 10 10 9 7 6 6 6 7 8 9 9 10 11 10 10 9 12 16 18 18 16 14 14 13 14 17 19 25 31 28 27 23 13 8 7 5 6 7 5 7 10 8 8 10
21 20 20 19 17 16 16 15 13 11 10 10 10 10 10 11 10 10 9 8 10 11 8 5 6 6 7 8 9 10 11 10 10 9 9 11 14 18 18 16 15 14 13 15 17 19 26 30 28 28 29 23 13 5 3 4 4 4 9 11 8 8 9
21 21 21 19 18 17 16 15 13 11 11 10 10 10 10 10 10 10 8 7 8 11 9 6 6 6 7 8 9 10 11 10 9 10 10 10 12 16 17 16 15 13 12 15 16 19 25 27 26 26 27 28 23 11 4 3 5 7 11 12 8 9 10
22 21 20 19 18 18 17 15 13 13 12 11 10 10 10 10 10 9 8 7 8 12 12 8 6 7 7 7 8 9 9 10 10 10 10 10 12 13 15 15 14 12 13 16 16 19 24 25 25 25 24 25 25 19 12 7 5 10 15 13 9 9 12
21 20 20 20 19 18 17 15 15 14 13 12 11 10 10 10 9 8 8 8 9 13 14 10 7 8 8 8 8 8 8 8 10 10 11 11 12 13 14 15 16 14 14 16 16 18 22 23 24 25 24 23 22 21 20 14 6 10 16 15 11 11 12
20 19 19 19 19 17 16 15 15 15 14 12 11 10 9 9 9 9 9 10 10 12 15 13 9 8 9 9 8 7 9 10 11 11 13 13 12 12 15 16 17 17 16 16 16 17 20 21 23 23 23 23 21 17 18 17 9 8 15 15 11 12 14
20 20 19 18 17 15 14 14 16 15 13 12 11 10 9 9 9 9 10 9 9 11 13 13 11 9 9 9 9 7 9 13 14 14 15 15 13 12 15 17 18 18 17 15 15 17 19 20 21 23 22 22 22 18 16 16 11 9 13 15 11 13 15
19 19 17 17 16 14 13 14 15 14 12 11 10 10 11 11 10 9 9 8 8 9 10 10 11 10 9 10 10 8 10 13 15 15 16 15 13 13 16 19 19 18 17 15 16 17 19 20 21 23 23 21 22 21 18 15 12 11 14 15 13 14 16
19 19 18 17 16 14 14 14 14 12 10 10 11 11 10 10 10 9 8 9 9 8 8 9 9 10 10 10 10 9 11 13 14 14 14 14 14 14 16 19 20 19 17 16 16 16 17 20 22 24 26 24 23 23 22 19 13 12 16 16 14 15 17
18 19 19 18 17 15 15 15 13 10 9 11 11 10 9 8 9 9 9 9 10 8 8 8 9 10 11 10 10 11 11 12 12 11 12 13 14 15 17 19 19 18 18 17 16 16 16 17 20 23 26 27 26 25 25 22 16 13 15 17 16 17 17
17 18 19 18 18 18 16 13 10 9 9 11 11 9 8 8 8 9 9 9 10 9 8 8 9 11 11 10 11 11 11 11 10 10 11 12 14 15 17 18 18 18 18 17 16 15 14 14 15 18 23 27 27 25 24 22 17 14 15 17 18 18 17
18 16 15 16 16 15 13 11 9 8 9 10 10 9 8 8 8 8 9 9 10 9 8 8 8 10 10 9 10 11 12 11 10 10 9 10 12 13 14 15 16 16 16 16 15 14 13 12 11 12 16 20 22 22 22 20 18 15 15 17 18 18 18
19 16 13 13 13 10 10 12 10 8 8 9 10 10 9 9 9 8 8 9 10 10 9 9 9 8 9 8 8 11 13 13 11 10 9 9 10 11 12 12 12 13 13 12 12 12 12 12 11 11 13 15 18 21 21 19 17 16 16 17 19 18 17
17 16 13 12 12 9 9 12 11 10 10 10 10 11 10 10 10 10 10 9 10 11 11 10 9 9 9 9 9 11 13 13 12 11 11 11 11 11 11 11 10 10 11 10 10 10 11 11 13 13 14 15 17 19 18 17 17 17 16 17 19 18 16
15 15 14 14 14 12 10 11 11 11 12 12 11 11 11 11 12 12 11 11 11 11 12 11 10 10 10 10 11 13 13 13 13 13 14 13 13 13 12 11 10 10 10 10 10 10 11 11 12 13 14 15 16 16 17 17 17 17 16 17 18 17 15
14 13 12 13 14 11 9 8 7 7 8 9 9 9 9 11 13 13 12 12 13 13 13 12 12 11 11 11 12 14 14 14 14 15 16 16 16 16 15 13 13 12 12 12 12 12 11 12 12 13 14 15 16 16 16 17 17 16 16 17 18 18 17
11 9 9 11 12 11 11 10 8 8 7 5 5 5 5 8 11 13 13 13 14 15 14 14 12 13 14 14 13 14 16 16 16 16 16 17 18 17 16 15 15 14 14 14 14 14 13 13 12 12 13 14 16 16 17 17 17 16 16 17 17 17 18
9 8 7 8 8 8 9 8 7 7 7 6 4 3 2 2 4 8 10 11 14 16 16 16 14 14 16 17 17 17 16 17 18 17 16 17 18 18 17 17 16 16 16 16 15 15 15 15 15 13 13 13 14 15 16 16 17 17 16 16 17 18 18
17 16 14 12 10 9 9 7 5 4 2 3 3 2 1 1 1 3 5 7 10 13 16 17 18 18 18 18 19 19 19 19 19 20 19 18 19 19 19 19 19 19 19 18 18 17 17 18 18 17 16 15 16 16 17 17 17 18 18 18 19 20 20
25 23 21 19 17 16 15 12 8 4 2 2 2 2 3 2 2 3 4 4 6 8 11 14 16 19 21 22 22 22 22 22 21 22 22 22 22 22 22 22 23 22 22 21 21 21 21 21 21 21 20 20 20 20 20 19 19 19 19 20 21 21 22
26 25 24 23 22 21 19 17 14 10 8 7 6 5 5 4 4 4 4 5 5 6 6 8 11 14 18 22 25 26 26 25 25 25 24 25 25 25 25 26 26 25 25 25 24 25 25 25 25 24 24 24 24 24 23 22 21 21 21 21 21 21 20
25 24 23 22 22 21 20 18 16 13 11 10 9 8 7 7 7 6 5 5 6 6 6 6 8 9 11 15 20 24 26 28 28 29 29 29 28 28 28 28 28 28 28 27 27 27 27 28 27 26 26 26 26 26 25 24 23 23 22 21 21 18 15
24 23 22 22 22 20 19 17 16 14 12 11 11 10 10 9 9 7 6 6 6 6 6 6 7 8 9 11 14 17 20 23 26 28 29 30 31 31 32 31 30 30 29 29 29 29 29 29 28 26 26 27 26 26 25 25 24 22 20 19 18 14 12
22 22 21 21 20 19 17 17 16 15 14 13 13 12 11 10 9 9 8 7 7 8 8 7 7 9 9 11 13 16 18 20 22 24 25 26 28 29 29 29 29 28 28 29 29 30 31 31 28 27 27 28 27 27 27 26 25 22 19 18 16 14 16
21 20 20 19 17 16 16 15 14 14 13 13 13 13 13 12 11 11 11 10 10 10 10 9 9 9 10 11 13 16 19 21 22 23 24 26 27 25 22 23 26 27 28 30 32 32 33 32 29 28 30 32 31 30 30 28 26 23 20 18 17 18 20
20 19 18 17 15 15 14 14 14 14 14 14 14 14 14 14 13 13 12 12 12 12 12 13 12 12 12 12 12 14 17 21 23 24 24 25 26 23 20 20 23 24 26 29 32 34 34 35 30 25 28 33 33 33 32 29 25 22 20 19 20 21 21
19 18 17 16 15 15 15 15 15 15 15 15 15 15 15 15 15 14 14 13 12 12 13 14 15 15 15 15 14 15 16 19 22 24 25 26 26 24 22 22 22 22 23 26 30 32 34 35 33 27 26 30 31 31 30 26 23 21 22 22 23 23 22
16 16 16 16 16 16 16 16 16 17 17 16 16 16 16 16 17 17 16 15 14 13 13 13 14 16 16 16 16 16 18 18 19 22 26 27 27 26 26 25 24 23 23 25 28 30 32 34 34 33 31 29 29 29 27 24 23 23 24 24 23 23 22
14 14 14 15 15 16 16 16 17 17 18 18 18 18 17 18 19 19 19 18 16 15 15 14 14 15 15 16 16 17 19 20 20 21 23 26 28 29 29 28 27 25 24 24 26 29 32 34 36 36 34 30 28 27 24 23 25 25 25 25 23 22 20
13 13 13 14 14 15 15 16 16 16 16 17 18 18 19 20 20 21 22 23 21 20 18 17 16 15 15 16 17 17 19 20 20 21 23 24 26 27 28 29 28 26 25 25 26 29 32 35 36 36 34 30 27 23 21 24 26 26 25 24 22 21 19

ECMWFFLT1_925_spd_048.txt.gz
Wind_Speed
18 17 15 14 12 11 11 11 10 9 9 8 9 9 9 9 9 9 9 9 9 10 10 10 10 11 10 12 13 13 14 16 16 17 17 15 16 13 8 5 1 5 11 10 11 13 7 4 8 12 13 14 14 15 15 14 14 12 11 10 9 9 9
17 16 15 14 13 12 13 12 11 11 11 11 11 11 11 10 9 8 8 9 9 10 10 10 10 10 10 11 13 12 13 14 15 15 16 15 16 16 12 7 5 8 10 8 13 17 11 6 5 5 9 13 13 14 15 15 13 12 11 9 9 9 8
17 16 16 16 15 14 14 14 13 12 12 12 11 11 10 9 8 7 8 9 10 10 10 10 10 10 10 11 11 12 12 12 13 14 15 14 14 15 13 10 9 11 10 7 12 16 12 8 7 7 10 11 10 11 13 15 13 11 10 9 8 8 8
18 18 18 18 16 16 16 15 14 13 12 11 10 10 9 8 7 6 7 8 9 10 9 9 10 10 10 10 10 12 12 11 12 13 14 13 14 15 15 12 11 12 10 9 15 18 14 10 9 8 9 11 11 10 11 13 12 11 10 9 9 9 9
18 19 19 19 18 18 17 15 15 14 12 11 11 10 8 7 6 5 6 9 9 9 9 8 9 9 9 9 10 11 12 11 12 13 14 13 14 16 16 14 12 12 11 11 18 21 19 19 16 9 9 11 9 7 11 13 11 10 10 8 9 10 11
18 19 19 19 19 18 16 16 16 14 13 13 12 11 8 6 5 4 5 8 9 8 7 8 8 9 10 10 9 10 11 12 12 13 13 13 13 14 16 15 12 13 11 9 17 21 21 24 21 13 10 9 7 7 10 10 9 9 8 8 9 10 12
18 18 18 19 18 17 16 16 15 14 14 13 12 11 9 6 4 4 4 7 9 7 6 6 7 8 9 9 9 10 11 11 11 12 12 12 13 13 14 15 13 13 11 9 16 21 23 26 23 19 14 8 8 9 7 6 9 8 6 9 10 11 13
18 18 17 17 16 16 16 14 14 13 12 11 10 10 9 7 5 4 5 6 8 6 5 5 5 5 6 7 8 8 10 11 11 12 12 12 12 12 13 14 12 12 11 10 15 20 24 28 28 28 23 12 6 5 3 4 7 5 6 10 11 12 14
18 17 16 15 14 15 15 13 12 11 9 8 9 9 8 8 7 6 6 6 6 6 4 3 3 3 4 5 6 7 8 9 10 10 11 11 11 11 12 12 11 11 11 11 14 18 23 28 30 31 30 22 12 4 1 3 4 4 8 11 11 13 15
19 17 16 16 15 15 14 12 10 9 8 8 9 9 8 8 8 7 6 6 5 5 4 2 1 2 2 3 4 6 6 6 7 7 8 8 9 10 12 12 10 10 9 10 13 17 23 28 30 30 29 25 20 11 3 1 4 6 10 12 10 12 16
18 16 16 16 17 16 15 12 10 9 9 8 9 9 8 8 8 8 7 5 4 5 6 3 1 2 1 1 3 4 5 4 5 5 6 6 6 9 12 12 11 10 8 10 13 16 22 27 28 29 26 21 20 18 11 5 5 8 13 14 10 12 17
18 17 17 17 17 17 15 13 12 10 9 9 8 8 8 8 8 8 7 6 4 6 7 4 1 2 1 2 2 3 4 4 5 6 6 6 6 9 12 13 12 10 8 11 13 15 21 26 26 26 23 18 16 19 19 12 5 8 14 15 12 13 16
18 18 17 17 16 15 14 13 13 12 10 9 8 8 8 8 8 8 7 6 6 6 8 7 3 1 1 2 2 2 2 3 4 6 7 7 7 9 12 13 13 10 9 12 13 15 21 24 24 23 21 17 14 15 20 16 7 8 14 15 12 13 15
17 16 16 15 15 14 12 12 12 12 11 9 8 8 8 8 8 8 7 6 6 6 8 9 5 3 3 2 2 1 1 2 4 5 6 6 6 8 10 13 13 11 10 12 13 16 20 22 21 21 20 18 16 15 16 13 8 9 13 14 13 14 15
16 16 15 15 14 13 12 11 11 11 11 10 9 8 7 7 7 6 6 5 5 5 7 9 7 5 4 3 3 2 2 3 5 6 6 5 5 6 8 12 13 12 11 12 12 15 19 20 20 20 20 19 18 16 14 11 9 11 15 16 15 15 17
17 16 16 15 14 12 11 11 10 10 10 9 8 7 7 8 7 7 6 5 5 5 6 8 7 6 5 4 4 4 5 6 7 7 7 5 4 5 7 10 13 14 13 12 12 14 18 20 20 20 21 20 20 19 17 13 10 11 16 18 16 16 19
18 17 17 15 14 12 11 11 10 9 8 7 7 7 8 8 8 7 6 5 5 4 4 5 6 6 6 5 5 5 7 8 9 8 7 6 4 4 7 10 13 14 14 13 13 15 17 19 19 20 21 21 21 21 19 17 14 11 14 18 17 17 19
17 17 17 15 14 13 13 12 11 8 5 6 7 7 7 7 6 7 6 6 5 5 4 5 5 6 7 7 6 6 7 10 10 8 6 6 5 5 7 10 13 14 14 14 14 15 16 18 19 20 21 22 22 21 20 19 17 15 13 15 17 17 17
16 16 15 14 13 14 14 13 10 7 5 6 7 6 5 5 5 6 7 6 6 5 5 5 4 5 7 8 7 7 7 9 9 9 7 7 8 7 8 10 12 13 13 12 12 12 13 14 15 16 18 20 22 22 21 19 19 17 14 13 16 17 18
16 17 17 17 15 13 12 11 9 7 6 6 5 4 4 5 5 5 6 6 6 6 6 5 4 4 6 7 7 7 8 9 8 8 8 9 9 9 9 10 11 12 12 11 11 11 11 11 10 11 11 13 15 18 19 19 19 19 16 14 14 17 19
16 17 18 19 17 13 10 9 7 6 5 5 5 5 6 6 6 6 6 5 5 6 6 6 5 5 5 6 5 5 8 9 8 8 8 8 8 9 9 9 9 10 11 10 10 11 11 10 10 10 9 9 10 12 15 18 19 19 18 15 14 15 17
14 15 16 18 17 12 9 7 5 5 4 5 7 8 9 9 8 9 8 6 6 6 6 7 6 5 5 5 5 5 6 9 10 9 8 8 8 9 8 7 8 8 9 9 10 10 11 11 11 11 11 10 10 11 13 17 19 19 18 16 15 15 15
12 12 13 15 15 12 9 6 7 8 6 7 9 10 11 11 11 11 10 8 7 7 7 7 7 7 6 6 6 6 6 9 10 10 9 9 10 10 10 9 9 9 9 9 10 10 10 10 10 10 11 11 12 13 15 18 19 19 17 17 17 17 17
16 15 14 15 14 12 11 10 9 8 7 5 6 6 7 7 7 8 8 8 8 8 8 9 8 8 8 8 8 8 7 9 10 10 10 11 12 12 12 12 12 11 11 11 11 11 10 10 11 11 11 12 12 14 15 18 19 19 18 18 18 19 20
19 18 17 17 16 16 16 15 13 11 9 7 5 4 3 2 2 3 4 5 6 7 9 10 11 11 10 10 10 10 10 10 11 11 11 12 13 14 14 14 14 14 13 12 11 11 11 11 11 12 12 12 13 14 15 16 16 17 18 19 19 20 21
20 19 18 17 16 16 15 14 12 11 9 7 6 6 5 4 3 2 1 1 2 3 5 7 9 11 12 12 13 13 13 13 13 14 14 15 15 16 16 16 16 16 15 15 14 14 13 13 13 13 13 13 14 15 15 16 16 16 17 18 20 20 20
23 21 20 18 17 16 15 14 13 11 9 7 7 7 7 7 6 5 4 3 3 3 3 4 5 7 9 11 14 16 17 17 17 17 17 17 18 18 18 18 18 18 18 18 17 17 17 17 16 16 16 16 16 16 16 17 17 17 18 18 20 20 20
25 23 22 20 19 19 17 16 15 13 12 11 10 10 10 9 9 8 7 6 5 4 3 3 3 5 6 7 10 13 16 19 20 20 20 20 20 20 21 21 21 21 21 21 20 20 20 20 20 19 19 19 19 19 19 19 20 21 21 21 22 21 21
24 23 21 20 20 20 18 16 15 13 12 13 13 12 11 11 11 11 9 8 7 7 5 4 3 4 6 7 7 8 10 13 17 20 22 23 24 24 24 24 24 24 24 24 23 23 23 22 22 21 21 22 22 22 21 22 22 23 23 23 23 22 22
22 21 20 20 20 19 17 16 15 12 10 11 11 12 12 11 11 11 10 10 9 10 9 8 7 6 6 7 8 8 9 10 11 14 18 21 24 25 26 26 25 26 27 27 26 26 25 23 23 23 23 24 24 25 25 25 25 25 24 23 23 23 22
20 20 20 19 19 18 16 16 15 13 12 11 10 10 10 10 10 10 11 11 10 10 10 10 10 9 8 8 8 9 10 11 12 13 15 16 19 21 22 22 23 25 26 27 26 26 24 23 22 22 23 24 26 27 27 27 26 26 25 24 23 22 20
20 19 19 18 17 16 15 15 14 12 12 12 11 10 10 9 9 10 10 10 10 10 10 10 10 10 10 10 9 9 10 12 13 15 17 17 18 19 19 18 20 23 25 25 24 24 23 23 23 22 21 23 25 27 28 27 27 26 25 23 21 20 19
19 19 18 17 16 15 14 13 13 12 12 12 11 11 11 11 11 10 10 10 10 10 11 11 11 11 11 11 11 10 10 11 12 14 16 18 19 20 17 14 15 19 21 21 21 22 22 24 24 23 22 22 24 27 27 26 26 25 23 21 19 19 19
18 17 16 15 14 15 15 14 14 13 13 13 13 12 12 12 12 11 11 10 10 10 11 12 12 11 11 12 12 12 11 11 12 14 16 18 19 20 19 16 16 17 18 19 19 20 21 23 26 26 25 24 25 26 26 25 24 22 20 19 19 19 19
15 15 14 13 13 14 14 14 14 14 14 14 14 14 14 14 13 13 12 12 11 11 12 12 13 13 12 12 13 13 13 12 12 14 16 17 19 19 20 19 17 17 19 20 21 21 21 23 25 26 26 26 25 25 25 25 24 21 19 19 22 23 24
14 14 13 13 13 14 14 14 14 14 14 15 15 15 15 16 16 16 16 15 15 14 14 14 14 14 14 13 14 14 14 13 13 15 16 17 18 19 19 19 18 17 19 21 22 22 21 21 23 24 25 25 23 22 24 24 24 24 23 23 25 27 27
14 14 14 14 15 15 16 15 15 15 16 16 16 17 17 18 19 20 21 21 20 19 19 18 16 15 15 15 15 15 16 16 15 16 18 18 19 20 20 20 19 19 19 21 23 23 22 21 22 22 24 24 21 20 23 25 25 26 25 25 26 26 25